     2.10           OBSERVATION DATA    G (GPS)             RINEX VERSION / TYPE
teqc 2006Apr13 CORS-ADM Account 20060624 09:04:05UTC        PGM / RUN BY / DATE
Solaris 5.9|UltraSparc IIi|cc -xarch=v9 SC5.5|=+-|*Sparc    COMMENT
teqc 2006Apr13 CORS/NGS/NOAA 20060624 09:04:04UTC           COMMENT
BIT 2 OF LLI FLAGS DATA COLLECTED UNDER A/S CONDITION       COMMENT
jama                                                        MARKER NAME
Frank E Marion NOAA, National Geodetic Survey               OBSERVER / AGENCY
ZR220022405 ASHTECH UZ-12 CK00                              REC # / TYPE / VERS
114 AOAD/M_TA_NGS SNOW                                      ANT # / TYPE
  1388060.4401 -5909150.8065  1951964.1158                  APPROX POSITION XYZ
        0.0000        0.0000        0.0000                  ANTENNA: DELTA H/E/N
     1     1                                                WAVELENGTH FACT L1/2
     7    C1    L1    L2    P1    P2    D1    D2            # / TYPES OF OBSERV
    30.0000                                                 INTERVAL
SNR is mapped to RINEX snr flag value [0-9]                 COMMENT
L1 & L2: min(max(int(snr_dBHz/6), 0), 9)                    COMMENT
pseudorange smoothing corrections not applied               COMMENT
Forced Modulo Decimation to 30 seconds                      COMMENT
  2006     6    24     8     0    0.0000000     GPS         TIME OF FIRST OBS
                                                            END OF HEADER
 06  6 24  8  0  0.0000000  0  7G17G 4G24G 2G 9G28G10
  21580525.5454  -20747744.74948 -16154325.81848  21580525.6974   21580525.0244
        44.7414         34.8484
  20833483.5664  -21957232.80348 -17050734.59748  20833483.4404   20833484.0464
     -1112.2844       -866.7424
  22220936.6594  -13978353.91148 -10837249.82347  22220935.8934   22220937.4644
     -2287.7974      -1782.7244
  21814887.4334  -20482409.97648 -15901862.71947  21814887.8374   21814886.0564
       880.4354        686.0554
  24476571.0264   -4122516.49446  -3207406.21846  24476570.7614   24476572.5664
      -596.5294       -464.8334
  21520407.4124  -21081049.01648 -16406769.88247  21520406.6824   21520406.5114
     -2635.8344      -2053.9164
  23792148.4344   -7475300.67947  -5802199.53146  23792146.3014   23792148.2744
      3740.8074       2914.9144
 06  6 24  8  0 30.0000000  0  7G17G 4G24G 2G 9G28G10
  21580281.6254  -20749026.59048 -16155324.65748  21580281.9634   21580281.4824
        40.6384         31.6744
  20839851.8454  -21923768.43248 -17024658.46047  20839851.6914   20839852.2844
     -1118.7884       -871.7854
  22233996.2764  -13909723.10948 -10783771.27947  22233996.5024   22233998.1424
     -2287.8154      -1782.6934
  21809884.3234  -20508702.07048 -15922350.05247  21809884.4484   21809883.5184
       872.0824        679.5334
  24480010.6954   -4104444.23646  -3193323.95046  24480011.3294   24480012.6064
      -608.2484       -473.9624
  21535491.7244  -21001779.41948 -16345001.36947  21535491.7054   21535491.2904
     -2648.8054      -2064.0094
  23770796.5094   -7587500.94047  -5889628.28346  23770795.7174   23770799.2844
      3739.0304       2913.5314
 06  6 24  8  1  0.0000000  0  7G17G 4G24G 2G 9G28G10
  21580064.5554  -20750168.08248 -16156214.13948  21580064.6434   21580063.9734
        34.8704         27.1724
  20846260.4244  -21890088.60448 -16998414.43848  20846260.6004   20846261.1724
     -1126.9934       -878.1644
  22247059.6614  -13841073.28348 -10730277.90747  22247060.3364   22247060.5794
     -2289.2694      -1783.8464
  21804932.2414  -20534728.37548 -15942630.28547  21804932.0294   21804930.4564
       862.4064        672.0184
  24483517.5574   -4086009.59046  -3178959.28746  24483517.5924   24483520.2104
      -621.1254       -483.9994
  21550655.1924  -20922096.98548 -16282911.16647  21550655.0194   21550654.5554
     -2663.7634      -2075.6634
  23749459.8674   -7699623.44547  -5976996.45046  23749460.2314   23749461.2154
      3735.4274       2910.7204
 06  6 24  8  1 30.0000000  0  7G17G 4G24G 2G 9G28G10
  21579874.8324  -20751164.33948 -16156990.44548  21579875.1034   21579874.3934
        30.4594         23.7344
  20852710.6614  -21856192.46948 -16972001.85948  20852710.7554   20852711.4644
     -1133.7404       -883.4244
  22260127.2634  -13772403.13148 -10676768.69647  22260127.3354   22260127.8044
     -2289.5054      -1784.0194
  21800030.1664  -20560486.75848 -15962701.73847  21800030.4164   21800029.0754
       853.7964        665.2894
  24487094.3724   -4067210.88646  -3164310.95446  24487093.1724   24487096.1834
      -632.8304       -493.1304
  21565896.6684  -20842000.72748 -16220498.49547  21565895.6614   21565896.5174
     -2677.0254      -2085.9934
  23728139.7504   -7811661.96947  -6064299.21746  23728138.8174   23728140.1644
      3733.2894       2909.0564
 06  6 24  8  2  0.0000000  0  7G17G 4G24G 2G 9G28G10
  21579711.9494  -20752019.17148 -16157656.55448  21579712.1974   21579711.9594
        26.5804         20.7054
  20859200.4874  -21822087.45248 -16945426.52247  20859200.7794   20859201.3144
     -1139.7334       -888.1044
  22273197.1484  -13703719.99548 -10623249.37347  22273198.1924   22273198.6254
     -2289.1534      -1783.7614
  21795178.0344  -20585983.64548 -15982569.43447  21795178.1044   21795177.0634
       845.8504        659.1004
  24490741.4334   -4048056.40846  -3149385.39546  24490740.8364   24490742.5024
      -643.7034       -501.5724
  21581215.7244  -20761498.61648 -16157769.58447  21581215.5224   21581214.7044
     -2689.6434      -2095.8284
  23706835.1844   -7923619.05047  -6151538.46246  23706835.3184   23706837.6394
      3730.9084       2907.2024
 06  6 24  8  2 30.0000000  0  7G17G 4G24G 2G 9G28G10
  21579577.1534  -20752728.25248 -16158209.08648  21579577.7164   21579576.9224
        21.1624         16.4934
  20865730.6984  -21787773.00248 -16918687.99047  20865730.9624   20865730.9974
     -1147.2044       -893.9334
  22286270.4134  -13635023.07548 -10569719.30147  22286270.5644   22286271.2474
     -2290.1644      -1784.5514
  21790376.2714  -20611217.31748 -16002232.02347  21790376.5274   21790375.0284
       836.7804        652.0374
  24494454.2754   -4028545.02746  -3134181.71646  24494454.3194   24494454.3474
      -656.4024       -511.4794
  21596612.2294  -20680590.08348 -16094723.97647  21596611.1994   21596611.3304
     -2703.6964      -2106.7644
  23685547.9214   -8035489.14547  -6238709.94046  23685546.8054   23685546.5914
      3727.5754       2904.6064
 06  6 24  8  3  0.0000000  0  7G17G 4G24G 2G 9G28G10
  21579469.9854  -20753289.91348 -16158646.74548  21579470.5894   21579470.2914
        15.9034         12.3974
  20872299.9304  -21753250.79148 -16891787.56448  20872300.4384   20872300.6244
     -1154.5434       -899.6374
  22299344.5834  -13566313.63448 -10516179.48547  22299345.0504   22299346.4504
     -2290.7004      -1784.9784
  21785623.9754  -20636188.24748 -16021689.88147  21785625.0014   21785624.1194
       827.6024        644.8854
  24498234.8824   -4008678.78846  -3118701.51746  24498232.9444   24498234.8174
      -668.3164       -520.7644
  21612085.6804  -20599277.06448 -16031363.18347  21612085.0954   21612085.0484
     -2717.4774      -2117.5214
  23664276.0184   -8147269.21047  -6325811.31346  23664275.2914   23664276.5774
      3724.3784       2902.1204
 06  6 24  8  3 30.0000000  0  7G17G 4G24G 2G 9G28G10
  21579392.2554  -20753702.66148 -16158968.37248  21579392.0624   21579391.4274
        10.4304          8.1314
  20878908.5974  -21718523.17148 -16864727.07948  20878908.6374   20878909.5924
     -1161.7884       -905.2844
  22312421.8454  -13497593.74548 -10462631.52047  22312421.8724   22312422.8484
     -2291.6644      -1785.6814
  21780922.3274  -20660897.76748 -16040944.04447  21780922.5254   21780921.0824
       818.5644        637.8464
  24502082.1764   -3988459.72846  -3102946.42046  24502083.0664   24502080.5724
      -680.5104       -530.2604
  21627635.4794  -20517561.70848 -15967688.88047  21627634.6124   21627634.1134
     -2731.3114      -2128.2764
  23643022.7564   -8258956.56447  -6412840.39546  23643022.1904   23643024.3424
      3720.4204       2899.0244
 06  6 24  8  4  0.0000000  0  7G17G 4G24G 2G 9G28G10
  21579340.7904  -20753966.30548 -16159173.81148  21579341.8614   21579341.5604
         6.9174          5.4024
  20885555.5414  -21683593.35548 -16837509.03948  20885555.2604   20885556.1454
     -1167.0914       -909.4184
  22325500.7614  -13428866.57648 -10409077.88447  22325500.2074   22325501.5384
     -2290.4944      -1784.7824
  21776270.0894  -20685347.92448 -16059996.10647  21776269.6494   21776268.6564
       811.1724        632.0954
  24505997.1244   -3967891.78046  -3086919.45446  24505995.1274   24505995.9014
      -690.5904       -538.1174
  21643261.6014  -20435447.83648 -15903704.04847  21643260.1374   21643260.9574
     -2743.2674      -2137.6104
  23621787.8094   -8370549.38547  -6499795.81746  23621787.0424   23621788.1444
      3718.7534       2897.7294
 06  6 24  8  4 30.0000000  0  7G17G 4G24G 2G 9G28G10
  21579320.8294  -20754076.38848 -16159259.58648  21579320.1404   21579320.2744
          .3594           .2694
  20892240.3194  -21648460.42948 -16810132.73147  20892240.6244   20892241.5014
     -1175.1444       -915.6964
  22338580.3074  -13360130.63048 -10355517.40347  22338580.0634   22338582.2654
     -2292.1204      -1786.0684
  21771667.1614  -20709536.98948 -16078844.72147  21771666.9734   21771666.2244
       801.1474        624.2554
  24509978.0384   -3946973.55746  -3070619.52446  24509977.3864   24509976.8644
      -703.8884       -548.4874
  21658963.2534  -20352934.56148 -15839407.98947  21658961.8514   21658962.5804
     -2757.6954      -2148.8524
  23600570.3814   -8482041.70947  -6586672.97046  23600570.5534   23600572.6084
      3714.3384       2894.2844
 06  6 24  8  5  0.0000000  0  7G17G 4G24G 2G 9G28G10
  21579329.0784  -20754033.89448 -16159226.47848  21579328.9564   21579328.9164
        -3.8814         -3.0194
  20898964.6984  -21613129.31448 -16782601.99147  20898964.1104   20898964.9914
     -1180.8784       -920.1714
  22351660.7094  -13291390.65348 -10301953.79247  22351660.5854   22351661.8444
     -2291.3734      -1785.4714
  21767112.9424  -20733468.84148 -16097492.90447  21767112.5514   21767111.4314
       793.6004        618.4144
  24514022.1564   -3925710.15746  -3054050.61646  24514024.1254   24514021.9574
      -714.7694       -556.9654
  21674739.6604  -20270026.99148 -15774804.69547  21674739.1654   21674739.0194
     -2770.1244      -2158.5154
  23579373.3724   -8593433.76247  -6673471.93646  23579373.0704   23579374.6784
      3711.5484       2892.1144
 06  6 24  8  5 30.0000000  0  7G17G 4G24G 2G 9G28G10
  21579365.1164  -20753838.25448 -16159074.03548  21579366.2424   21579365.4634
       -10.0994         -7.8574
  20905723.7424  -21577602.85948 -16754919.03647  20905724.6604   20905724.7974
     -1188.6424       -926.2134
  22364742.3754  -13222648.86148 -10248388.75147  22364741.6934   22364742.7374
     -2292.5924      -1786.4304
  21762607.1294  -20757144.89148 -16115941.76247  21762606.9974   21762606.8214
       783.8414        610.7834
  24518135.3054   -3904104.38346  -3037214.94446  24518133.8614   24518133.6304
      -727.1864       -566.6434
  21690591.1744  -20186728.09448 -15709896.46547  21690590.2154   21690589.8534
     -2784.2514      -2169.5524
  23558196.7994   -8704723.10847  -6760190.93046  23558195.8024   23558196.4924
      3706.9524       2888.5364
 06  6 24  8  6  0.0000000  0  7G17G 4G24G 2G 9G28G10
  21579433.6614  -20753486.00348 -16158799.55048  21579433.0724   21579433.0234
       -13.2844        -10.3564
  20912522.1744  -21541881.22448 -16727084.00547  20912522.3494   20912522.7264
     -1192.9724       -929.5954
  22377824.1144  -13153905.57248 -10194822.55447  22377823.7924   22377825.1124
     -2290.3184      -1784.6454
  21758150.8904  -20780564.58948 -16134190.87447  21758151.2114   21758149.7134
       777.5454        605.8654
  24522311.3664   -3882156.48946  -3020112.69246  24522311.7294   24522311.7424
      -736.2104       -573.6604
  21706515.5584  -20103038.71848 -15644683.96647  21706515.3694   21706515.7154
     -2795.0084      -2177.9274
  23537038.7704   -8815905.22647  -6846826.32346  23537038.3664   23537040.0404
      3705.1644       2887.1434
 06  6 24  8  6 30.0000000  0  7G17G 4G24G 2G 9G28G10
  21579530.4124  -20752975.91748 -16158402.08448  21579530.2074   21579530.0474
       -19.9934        -15.5824
  20919356.4504  -21505966.78248 -16699098.71947  20919356.6044   20919356.4834
     -1200.5954       -935.5214
  22390905.2834  -13085162.50548 -10141256.53047  22390904.3764   22390906.2084
     -2291.7334      -1785.7504
  21753742.8454  -20803729.25048 -16152241.24547  21753742.7914   21753740.9564
       767.4794        598.0264
  24526550.9354   -3859869.09146  -3002745.89246  24526551.9644   24526553.3644
      -748.7384       -583.4524
  21722516.0204  -20018961.27348 -15579169.07247  21722515.5114   21722516.1144
     -2809.4124      -2189.1444
  23515902.9104   -8926977.52947  -6933376.16746  23515901.4654   23515902.9704
      3700.4444       2883.4634
 06  6 24  8  7  0.0000000  0  7G17G 4G24G 2G 9G28G10
  21579656.6984  -20752304.38248 -16157878.81748  21579658.0744   21579657.7724
       -23.7044        -18.4634
  20926227.4454  -21469859.38348 -16670963.08447  20926227.1594   20926228.7224
     -1205.2764       -939.1744
  22403986.6864  -13016419.44548 -10087690.51847  22403986.5444   22403988.4264
     -2290.1664      -1784.5514
  21749383.4904  -20826638.14648 -16170092.32947  21749383.1804   21749382.0574
       760.8124        592.8434
  24530857.1364   -3837242.65646  -2985114.89846  24530857.4184   24530857.8144
      -758.1934       -590.8054
  21738588.5214  -19934496.12748 -15513352.08647  21738588.5924   21738588.7064
     -2820.4834      -2197.7794
  23494788.4424   -9037935.24147  -7019836.72246  23494786.2994   23494788.7904
      3697.8604       2881.4504
 06  6 24  8  7 30.0000000  0  7G17G 4G24G 2G 9G28G10
  21579815.5784  -20751476.33948 -16157233.58148  21579815.3484   21579815.4804
       -29.8164        -23.2304
  20933133.7174  -21433567.84048 -16642683.95847  20933133.6494   20933134.3314
     -1212.3584       -944.6904
  22417065.7074  -12947684.45548 -10034130.78647  22417065.7034   22417066.8784
     -2290.5354      -1784.8464
  21745071.5044  -20849298.35748 -16187749.62447  21745070.9764   21745069.9184
       751.6704        585.7234
  24535226.0844   -3814285.35146  -2967226.09546  24535226.4174   24535226.2394
      -770.3224       -600.2564
  21754734.2524  -19849651.83248 -15447239.64547  21754734.0174   21754734.7514
     -2834.0064      -2208.3024
  23473694.2404   -9148781.75547  -7106210.62246  23473693.5384   23473696.7674
      3693.6904       2878.1964
 06  6 24  8  8  0.0000000  0  7G17G 4G24G 2G 9G28G10
  21580004.6904  -20750482.77748 -16156459.38848  21580004.8574   21580004.1904
       -35.4914        -27.6494
  20940075.0484  -21397086.65748 -16614257.06147  20940075.8864   20940076.3724
     -1218.7134       -949.6544
  22430145.4744  -12878952.01348  -9980573.04047  22430143.6524   22430145.9254
     -2290.5074      -1784.8154
  21740807.6794  -20871703.62548 -16205208.26647  21740807.5114   21740806.1454
       743.1364        579.0514
  24539657.4564   -3790992.17846  -2949075.56546  24539659.4364   24539659.4574
      -781.4234       -608.9084
  21770952.5254  -19764423.55548 -15380828.00647  21770952.3424   21770952.3204
     -2846.8774      -2218.3594
  23452625.3584   -9259506.61347  -7192489.72246  23452624.0014   23452624.5714
      3689.2274       2874.7354
 06  6 24  8  8 30.0000000  0  7G17G 4G24G 2G 9G28G10
  21580224.2094  -20749325.73448 -16155557.80048  21580224.9204   21580224.5794
       -40.6314        -31.6654
  20947053.0404  -21360421.29448 -16585686.64847  20947052.7744   20947053.7114
     -1224.6294       -954.2554
  22443223.3674  -12810227.02348  -9927021.10547  22443223.1264   22443225.6424
     -2290.0754      -1784.4834
  21736591.5824  -20893858.42648 -16222471.73447  21736591.8824   21736590.6174
       734.9904        572.7134
  24544154.0594   -3767368.88546  -2930667.80846  24544152.5354   24544154.3254
      -792.2924       -617.3754
  21787243.5284  -19678817.43548 -15314121.93947  21787242.7164   21787242.6264
     -2859.1724      -2227.9414
  23431576.8564   -9370110.72447  -7278674.74346  23431575.3874   23431577.6034
      3685.1624       2871.5554
 06  6 24  8  9  0.0000000  0  7G17G 4G24G 2G 9G28G10
  21580476.0184  -20748003.96148 -16154527.84048  21580476.4194   21580475.9804
       -47.7074        -37.1824
  20954063.8514  -21323574.44848 -16556974.81347  20954064.6724   20954065.3134
     -1232.0804       -960.0734
  22456300.0284  -12741511.93448  -9873476.88047  22456299.6484   22456300.1804
     -2291.1734      -1785.3524
  21732423.5174  -20915764.52348 -16239541.41447  21732423.7554   21732421.9154
       725.1644        565.0404
  24548709.7854   -3743418.29346  -2912005.03346  24548710.6634   24548713.6614
      -804.6324       -626.9904
  21803604.6764  -19592836.41248 -15247123.73447  21803603.6774   21803603.7864
     -2873.1284      -2238.8504
  23410552.6714   -9480591.48847  -7364763.64146  23410552.1174   23410554.3084
      3679.1394       2866.8584
 06  6 24  8  9 30.0000000  0  8G13G17G 4G24G 2G 9G28G10
  24646559.9444   -4650513.99746  -3600255.75345  24646558.1814   24646556.9054
      1243.4164        968.8944
  21580757.5034  -20746528.16448 -16153377.87748  21580757.4624   21580756.8704
       -51.6774        -40.2504
  20961108.2354  -21286560.29748 -16528132.62447  20961108.9784   20961108.9614
     -1236.6354       -963.5964
  22469371.2094  -12672820.48448  -9819951.07847  22469371.9154   22469371.9144
     -2289.2614      -1783.8084
  21728299.2974  -20937435.30748 -16256427.73147  21728299.6354   21728297.4214
       718.4684        559.8554
  24553328.1664   -3719155.14846  -2893098.70446  24553327.4054   24553329.5874
      -814.0514       -634.3224
  21820035.0714  -19506494.77948 -15179844.54247  21820034.6404   21820033.6994
     -2884.0244      -2247.2764
  23389551.1864   -9590958.24747  -7450763.70146  23389550.4844   23389551.8654
      3676.9854       2865.1894
 06  6 24  8 10  0.0000000  0  8G13G17G 4G24G 2G 9G28G10
  24639480.4354   -4687710.49546  -3629240.03145  24639480.5474   24639480.3974
      1238.2694        964.8794
  21581072.5214  -20744869.66348 -16152085.54248  21581072.7964   21581072.3904
       -57.1924        -44.5484
  20968188.5114  -21249353.52948 -16499140.33047  20968188.8144   20968188.8784
     -1242.2164       -967.9574
  22482442.8094  -12604126.96248  -9766423.66447  22482443.1054   22482444.2784
     -2288.5804      -1783.3104
  21724225.3634  -20958844.07848 -16273109.88847  21724225.6844   21724224.4524
       710.5564        553.7054
  24558007.4864   -3694553.95346  -2873928.95646  24558006.8054   24558012.9004
      -824.7974       -642.7084
  21836538.7144  -19419767.45648 -15112264.81247  21836538.4564   21836537.5524
     -2896.0024      -2256.6554
  23368576.5824   -9701180.78447  -7536651.39146  23368575.6954   23368578.4694
      3672.9384       2862.0284
 06  6 24  8 10 30.0000000  0  8G13G17G 4G24G 2G 9G28G10
  24632434.4184   -4724731.77146  -3658087.77445  24632438.3844   24632437.1084
      1229.9464        958.4024
  21581420.3094  -20743041.74348 -16150661.19148  21581420.5534   21581420.0864
       -64.6244        -50.3574
  20975302.2934  -21211970.90548 -16470011.01047  20975301.9574   20975302.8174
     -1249.9084       -973.9554
  22495512.9024  -12535447.51848  -9712907.21047  22495511.9364   22495513.4904
     -2289.8584      -1784.3184
  21720197.5324  -20980006.99448 -16289600.45847  21720197.8224   21720197.1644
       700.3844        545.7494
  24562752.2354   -3669631.69146  -2854509.02246  24562751.1454   24562755.0854
      -836.9844       -652.1874
  21853113.2314  -19332671.78148 -15044398.05747  21853113.3474   21853111.4274
     -2910.0924      -2267.5924
  23347626.9164   -9811271.06347  -7622436.01846  23347626.2124   23347627.3034
      3666.7214       2857.1864
 06  6 24  8 11  0.0000000  0  8G13G17G 4G24G 2G 9G28G10
  24625427.0954   -4761574.23746  -3686796.17645  24625428.2224   24625426.1124
      1225.9274        955.2664
  21581801.0914  -20741041.97448 -16149102.93448  21581801.5144   21581800.5924
       -68.9794        -53.7504
  20982448.7394  -21174413.83148 -16440745.75647  20982449.0154   20982449.9204
     -1254.0774       -977.2044
  22508579.1374  -12466783.27148  -9659402.60547  22508578.5044   22508580.0104
     -2287.8184      -1782.7114
  21716217.9684  -21000924.23548 -16305899.60847  21716217.8124   21716216.3724
       693.8554        540.6584
  24567554.6534   -3644390.01446  -2834840.19946  24567555.5764   24567557.9984
      -846.3464       -659.4844
  21869755.6224  -19245209.52448 -14976245.65347  21869754.8624   21869755.3004
     -2920.7914      -2275.9394
  23326702.9614   -9921225.40147  -7708114.71446  23326702.4924   23326703.9184
      3663.5984       2854.7584
 06  6 24  8 11 30.0000000  0  8G13G17G 4G24G 2G 9G28G10
  24618447.3534   -4798239.13546  -3715366.22446  24618448.9244   24618449.5094
      1217.6094        948.7864
  21582213.7864  -20738872.84448 -16147412.70548  21582213.9904   21582213.4784
       -76.4454        -59.5674
  20989626.9364  -21136688.34948 -16411349.27547  20989627.8364   20989628.5204
     -1261.4634       -982.9434
  22521641.0664  -12398139.78548  -9605914.17747  22521640.9694   22521641.7214
     -2289.0534      -1783.6944
  21712283.3804  -21021601.16948 -16322011.49447  21712282.5554   21712281.5664
       683.9784        532.9574
  24572417.8044   -3618836.01446  -2814928.00446  24572417.2894   24572421.5054
      -858.4454       -668.9304
  21886467.5344  -19157387.67548 -14907813.04147  21886467.8994   21886466.7674
     -2934.7024      -2286.7754
  23305804.6044  -10031044.89747  -7793688.35646  23305803.9774   23305807.4284
      3656.9054       2849.5364
 06  6 24  8 12  0.0000000  0  8G13G17G 4G24G 2G 9G28G10
  24611509.9734   -4834717.47346  -3743790.89746  24611509.9954   24611509.0474
      1213.3364        945.4574
  21582660.0954  -20736526.12948 -16145584.10548  21582660.7304   21582660.1624
       -80.3714        -62.6244
  20996839.8864  -21098790.18548 -16381818.24547  20996839.6304   20996840.4144
     -1265.4264       -986.0334
  22534700.2564  -12329512.68548  -9552438.51347  22534700.2434   22534701.8544
     -2286.6504      -1781.7904
  21708394.2904  -21042032.69648 -16337932.16047  21708394.7894   21708393.4314
       677.6484        528.0364
  24577342.6094   -3592965.06746  -2794768.81846  24577341.9334   24577344.8064
      -866.9944       -675.5744
  21903249.1644  -19069201.75748 -14839096.74647  21903249.8314   21903248.2414
     -2944.8614      -2294.6754
  23284934.9854  -10140720.31547  -7879149.70346  23284934.8124   23284936.6084
      3654.1434       2847.3854
 06  6 24  8 12 30.0000000  0  8G13G17G 4G24G 2G 9G28G10
  24604600.6004   -4871013.29746  -3772073.36546  24604601.8104   24604599.4454
      1205.8804        939.6474
  21583139.8424  -20734007.78448 -16143621.75948  21583139.7134   21583139.3564
       -87.8984        -68.4944
  21004082.2864  -21060728.24748 -16352159.58747  21004082.5484   21004082.8424
     -1272.5604       -991.6184
  22547754.7124  -12260910.37548  -9498982.16747  22547755.0434   22547755.5174
     -2287.3594      -1782.3584
  21704551.9374  -21062226.76748 -16353667.79247  21704552.9684   21704550.8084
       668.2094        520.6664
  24582324.4224   -3566786.49046  -2774369.93846  24582323.9164   24582324.5664
      -878.7064       -684.7034
  21920096.7604  -18980661.68148 -14770104.47447  21920096.7694   21920097.0594
     -2958.2644      -2305.1354
  23264091.6774  -10250255.64547  -7964501.90446  23264090.3814   23264092.5614
      3647.9184       2842.5344
 06  6 24  8 13  0.0000000  0  8G13G17G 4G24G 2G 9G28G10
  24597732.5254   -4907113.92146  -3800203.69646  24597728.6364   24597732.5994
      1198.5064        933.9084
  21583653.7734  -20731305.85848 -16141516.36648  21583653.7954   21583653.7764
       -94.8324        -73.8894
  21011358.5454  -21022494.47848 -16322367.03847  21011358.4114   21011359.3344
     -1278.9574       -996.5904
  22560806.3744  -12192324.21148  -9445538.40947  22560807.1294   22560808.0904
     -2287.6094      -1782.5754
  21700756.4934  -21082174.35948 -16369211.36147  21700756.1604   21700754.8114
       659.1804        513.6494
  24587367.3414   -3540292.68346  -2753725.42146  24587366.1284   24587365.2364
      -889.9304       -693.4504
  21937014.9684  -18891759.56748 -14700830.09347  21937014.5504   21937015.0844
     -2971.1074      -2315.1334
  23243276.8444  -10359637.65847  -8049734.64746  23243276.0614   23243277.0004
      3641.7964       2837.7604
 06  6 24  8 13 30.0000000  0  8G13G17G 4G24G 2G 9G28G10
  24590894.6184   -4943026.90046  -3828187.82045  24590896.4044   24590898.5014
      1192.8054        929.4604
  21584201.2874  -20728429.10748 -16139274.74148  21584201.4424   21584200.7564
      -100.1104        -78.0134
  21018663.9914  -20984101.06148 -16292450.08247  21018664.5804   21018664.0764
     -1283.7724      -1000.3424
  22573852.3614  -12123766.21248  -9392116.59747  22573853.5444   22573853.3444
     -2286.0804      -1781.3684
  21697005.1594  -21101886.79048 -16384571.69447  21697005.0064   21697003.3014
       651.7924        507.8884
  24592463.8974   -3513495.99346  -2732844.86146  24592463.7574   24592465.7504
      -899.6774       -701.0594
  21954000.2154  -18802508.19148 -14631283.58447  21954000.0144   21953998.5464
     -2982.0954      -2323.7004
  23222489.1214  -10468874.06147  -8134853.90846  23222488.4174   23222490.1514
      3637.4664       2834.3874
 06  6 24  8 14  0.0000000  0  8G13G17G 4G24G 2G 9G28G10
  24584101.4984   -4978741.41046  -3856017.27145  24584099.9784   24584100.3154
      1188.1974        925.8774
  21584783.4174  -20725367.98948 -16136889.46548  21584783.7464   21584783.5384
      -103.9894        -81.0264
  21026002.0104  -20945542.12748 -16262404.16647  21026002.5954   21026002.1734
     -1286.9494      -1002.8184
  22586894.7064  -12055229.89448  -9338711.67547  22586894.9454   22586895.7304
     -2283.2124      -1779.1204
  21693299.8964  -21121357.44048 -16399743.62147  21693299.5064   21693298.5104
       646.0604        503.4174
  24597622.0084   -3486390.54446  -2711723.73546  24597622.1654   24597625.1644
      -907.4774       -707.1294
  21971050.8364  -18712902.22848 -14561460.76347  21971049.8144   21971049.7814
     -2991.7174      -2331.2124
  23201731.4974  -10577954.03547  -8219851.29346  23201730.4014   23201733.2864
      3634.3684       2831.9784
 06  6 24  8 14 30.0000000  0  8G13G17G 4G24G 2G 9G28G10
  24577341.9584   -5014257.17646  -3883691.86345  24577340.1914   24577341.4014
      1180.0094        919.4894
  21585401.2494  -20722123.74548 -16134361.48348  21585401.1304   21585400.7364
      -111.3954        -86.8024
  21033369.3384  -20906822.38448 -16232232.93047  21033370.0264   21033370.6594
     -1293.5614      -1007.9634
  22599931.8934  -11986719.42548  -9285326.88847  22599932.5864   22599933.8674
     -2283.4554      -1779.3104
  21689639.9194  -21140589.69048 -16414729.78447  21689639.5474   21689638.8794
       636.8744        496.2564
  24602837.5844   -3458981.77646  -2690366.24746  24602840.5514   24602838.3374
      -919.0504       -716.1384
  21988169.0124  -18622946.52548 -14491365.41447  21988167.5364   21988168.7444
     -3004.6534      -2341.2684
  23181004.3054  -10686877.35247  -8304726.58146  23181003.9794   23181005.6614
      3627.7504       2826.8194
 06  6 24  8 15  0.0000000  0  8G13G17G 4G24G 2G 9G28G10
  24570623.4264   -5049577.97046  -3911214.59645  24570621.6414   24570617.4534
      1172.8734        913.9354
  21586052.1724  -20718701.01748 -16131694.42348  21586052.6824   21586051.8894
      -118.4164        -92.2624
  21040767.0814  -20867949.81548 -16201942.62147  21040766.9224   21040767.8134
     -1299.6494      -1012.7194
  22612962.1024  -11918242.48048  -9231968.23347  22612962.9984   22612963.9024
     -2283.3574      -1779.2194
  21686024.0074  -21159591.26348 -16429536.19347  21686024.3384   21686022.4254
       628.1464        489.4624
  24608109.8524   -3431278.41246  -2668779.21846  24608109.1064   24608109.8034
      -929.4984       -724.2864
  22005351.0114  -18532650.12548 -14421004.58847  22005350.7094   22005351.0364
     -3016.7874      -2350.7514
  23160305.5734  -10795647.25147  -8389482.37046  23160304.9494   23160307.3764
      3621.4194       2821.8904
 06  6 24  8 15 30.0000000  0  8G13G17G 4G24G 2G 9G28G10
  24563938.3874   -5084694.23246  -3938577.98146  24563938.6734   24563939.3034
      1166.1724        908.7084
  21586739.0184  -20715091.11648 -16128881.51548  21586739.3904   21586739.0124
      -124.3884        -96.9494
  21048193.9264  -20828919.75148 -16171529.58047  21048194.5374   21048194.7914
     -1304.6614      -1016.6404
  22625987.8704  -11849793.77248  -9178631.57947  22625987.6444   22625989.5324
     -2282.0894      -1778.2694
  21682453.2934  -21178356.40248 -16444158.37047  21682452.7034   21682451.9404
       620.6704        483.6344
  24613438.7564   -3403276.10746  -2646959.23946  24613439.9664   24613439.6594
      -939.3004       -731.9264
  22022599.8934  -18442008.76248 -14350374.94847  22022598.4834   22022600.1694
     -3027.8804      -2359.4164
  23139639.2894  -10904254.02047  -8474110.98646  23139638.3694   23139640.2694
      3616.5384       2818.0734
 06  6 24  8 16  0.0000000  0  8G13G17G 4G24G 2G 9G28G10
  24557295.1164   -5119604.14546  -3965780.51546  24557296.9144   24557296.0864
      1160.4744        904.2624
  21587461.8834  -20711293.77548 -16125922.55148  21587462.1964   21587462.1024
      -129.7304       -101.0874
  21055651.0214  -20789735.23248 -16140996.18747  21055651.2944   21055651.8234
     -1308.7294      -1019.7864
  22639007.5534  -11781375.81748  -9125318.88547  22639008.1864   22639009.1494
     -2279.9854      -1776.6264
  21678926.9254  -21196887.18048 -16458597.92547  21678926.9154   21678925.4874
       613.6834        478.1894
  24618823.7544   -3374978.20546  -2624908.92846  24618822.7574   24618823.3034
      -947.8924       -738.6094
  22039913.0184  -18351025.95647 -14279479.26847  22039912.7814   22039913.7354
     -3038.4004      -2367.5674
  23119003.2384  -11012695.64747  -8558610.97046  23119001.5694   23119003.9154
      3611.9694       2814.5134
 06  6 24  8 16 30.0000000  0  8G13G17G 4G24G 2G 9G28G10
  24550690.1004   -5154305.44246  -3992820.44646  24550694.7224   24550694.9344
      1152.8264        898.2984
  21588220.9444  -20707307.99748 -16122816.75448  21588220.6604   21588220.1714
      -136.1274       -106.0754
  21063136.1174  -20750398.46248 -16110344.15147  21063136.6904   21063136.9924
     -1313.7664      -1023.7214
  22652021.1494  -11712990.39748  -9072031.55047  22652021.2554   22652021.4514
     -2279.0414      -1775.8924
  21675445.5754  -21215185.10448 -16472856.04047  21675444.5424   21675443.4714
       605.8714        472.1124
  24624262.1574   -3346387.18546  -2602630.20645  24624265.3694   24624265.1394
      -958.1314       -746.5944
  22057291.6544  -18259704.74048 -14208319.88747  22057289.3734   22057290.2974
     -3049.6614      -2376.3784
  23098399.5314  -11120969.46747  -8642980.17746  23098398.5494   23098400.1844
      3606.2854       2810.0934
 06  6 24  8 17  0.0000000  0  8G13G17G 4G24G 2G 9G28G10
  24544129.2224   -5188792.44946  -4019693.37446  24544128.8304   24544131.0894
      1146.7594        893.5734
  21589015.7204  -20703129.01148 -16119560.40548  21589015.9064   21589015.6014
      -142.0354       -110.6724
  21070651.1554  -20710908.54948 -16079572.79147  21070651.1654   21070651.4284
     -1318.4514      -1027.3724
  22665028.0964  -11644636.08648  -9018768.45447  22665028.0914   22665029.4064
     -2277.3684      -1774.5934
  21672007.8984  -21233248.60748 -16486931.49247  21672007.7534   21672005.9564
       598.7064        466.5194
  24629758.6594   -3317502.55546  -2580122.71045  24629760.4544   24629762.7964
      -967.2854       -753.7214
  22074734.2284  -18168044.45547 -14136896.28647  22074733.4374   22074732.5654
     -3060.3074      -2384.6564
  23077828.7304  -11229069.76947  -8727214.17646  23077828.4004   23077829.8424
      3601.0954       2806.0484
 06  6 24  8 17 30.0000000  0  8G13G17G 4G24G 2G 9G28G10
  24537607.0114   -5223068.33546  -4046401.78446  24537607.1984   24537607.2294
      1138.8124        887.3884
  21589846.3504  -20698760.92848 -16116156.70348  21589846.9054   21589846.5574
      -148.6684       -115.8434
  21078192.9884  -20671273.06148 -16048687.99647  21078193.3494   21078194.0834
     -1323.6084      -1031.3694
  22678028.4164  -11576320.19248  -8965535.29147  22678027.7684   22678030.7654
     -2276.6154      -1773.9894
  21668614.0474  -21251084.37348 -16500829.48347  21668614.3764   21668612.1274
       590.6984        460.2894
  24635310.9944   -3288332.73146  -2557393.00146  24635312.1054   24635312.8124
      -977.2754       -761.5134
  22092238.9984  -18076053.55747 -14065215.07947  22092238.8554   22092238.7674
     -3071.7434      -2393.5654
  23057291.1414  -11336999.27947  -8811315.07546  23057289.6244   23057291.1594
      3594.7524       2801.1124
 06  6 24  8 18  0.0000000  0  8G13G17G 4G24G 2G 9G28G10
  24531125.6584   -5257128.70446  -4072942.35646  24531125.0964   24531126.1744
      1131.6694        881.8124
  21590715.1374  -20694201.13848 -16112603.62548  21590714.7194   21590714.5934
      -155.2234       -120.9584
  21085762.7964  -20631493.16448 -16017690.67647  21085763.1634   21085763.3894
     -1328.2904      -1035.0314
  22691021.0324  -11508043.01948  -8912332.30547  22691020.5034   22691023.1484
     -2275.1224      -1772.7884
  21665262.5874  -21268692.61648 -16514550.18047  21665263.3894   21665261.8324
       583.1894        454.4334
  24640915.8524   -3258879.16546  -2534442.15846  24640915.2234   24640916.6224
      -986.3214       -768.5674
  22109806.2474  -17983733.70447 -13993277.52647  22109807.3494   22109806.1094
     -3082.5744      -2402.0094
  23036785.8744  -11444754.33447  -8895280.04346  23036783.6894   23036785.9444
      3589.1754       2796.7654
 06  6 24  8 18 30.0000000  0  8G13G17G 4G24G 2G 9G28G10
  24524685.1204   -5290971.02846  -4099313.02546  24524685.7284   24524684.8324
      1124.0124        875.8494
  21591619.0404  -20689447.82748 -16108899.75048  21591619.4994   21591618.7944
      -162.0304       -126.2484
  21093360.4144  -20591569.95948 -15986581.68747  21093360.7624   21093360.5884
     -1333.4604      -1039.0294
  22704006.6904  -11439805.73548  -8859160.39447  22704005.7304   22704007.8764
     -2274.1674      -1772.0764
  21661955.6134  -21286073.83748 -16528093.98047  21661955.3364   21661954.3544
       575.2604        448.2644
  24646575.6794   -3229143.75746  -2511271.70946  24646575.5004   24646576.9324
      -996.2644       -776.3234
  22127436.7374  -17891086.99947 -13921085.29447  22127436.9824   22127435.9104
     -3093.9034      -2410.8234
  23016314.3174  -11552331.35647  -8979106.29246  23016314.2754   23016314.8274
      3582.3224       2791.4164
 06  6 24  8 19  0.0000000  0  9G13G17G 4G24G 2G 9G28G10G 5
  24518289.8694   -5324591.16846  -4125510.55246  24518290.0724   24518286.3234
      1117.5824        870.8504
  21592560.4754  -20684497.82248 -16105042.60648  21592561.1724   21592560.8884
      -167.6364       -130.6174
  21100985.0434  -20551504.35348 -15955361.73447  21100984.9114   21100985.2044
     -1337.2134      -1041.9754
  22716983.6154  -11371608.27348  -8806019.51947  22716983.3254   22716984.8174
     -2272.0344      -1770.4134
  21658691.1104  -21303228.15148 -16541460.97047  21658690.5234   21658689.7004
       568.6384        443.0934
  24652285.9404   -3199127.54146  -2487882.47646  24652285.8984   24652289.5384
     -1004.6054       -782.8114
  22145128.1534  -17798114.80047 -13848639.42747  22145127.8524   22145128.1494
     -3103.7444      -2418.4884
  22995876.8974  -11659726.19047  -9062790.57346  22995875.9154   22995878.1254
      3577.2574       2787.4764
  24493595.6224   -4460149.53746  -3432086.16946  24493597.7884   24493600.9614
      3148.4464       2453.3374
 06  6 24  8 19 30.0000000  0  9G13G17G 4G24G 2G 9G28G10G 5
  24511932.9154   -5357984.00146  -4151530.93746  24511934.2654   24511932.8304
      1109.3084        864.3954
  21593540.9654  -20679347.62548 -16101029.46248  21593541.1714   21593540.7184
      -175.1454       -136.4684
  21108636.0804  -20511295.79348 -15924030.39047  21108636.5974   21108636.9624
     -1342.5654      -1046.1364
  22729953.6814  -11303449.59948  -8752908.86847  22729954.1864   22729954.9964
     -2271.2454      -1769.8054
  21655469.9264  -21320154.36948 -16554650.22747  21655469.9194   21655468.8194
       560.3394        436.6444
  24658052.0194   -3168830.54946  -2464274.43646  24658053.4584   24658053.7324
     -1014.5474       -790.5524
  22162882.6594  -17704817.14047 -13775939.96147  22162882.2404   22162883.2574
     -3115.3864      -2427.6074
  22975476.5604  -11766933.21447  -9146328.50846  22975475.3234   22975478.0874
      3570.4974       2782.2064
  24475648.0754   -4554476.04246  -3505587.27046  24475649.2184   24475648.2584
      3140.2794       2446.9784
 06  6 24  8 20  0.0000000  0  9G13G17G 4G24G 2G 9G28G10G 5
  24505621.6884   -5391148.88846  -4177373.69745  24505621.8444   24505622.0354
      1101.2734        858.1344
  21594559.0004  -20673997.75348 -16096860.73948  21594559.7384   21594558.7424
      -182.2224       -141.9764
  21116314.1634  -20470948.35548 -15892590.82847  21116313.5434   21116314.4374
     -1347.7704      -1050.2034
  22742915.8504  -11235333.41348  -8699831.33547  22742916.1384   22742917.6474
     -2270.2464      -1769.0414
  21652292.0364  -21336855.51548 -16567664.10047  21652291.9674   21652290.6814
       552.4494        430.5024
  24663869.7164   -3138257.44146  -2440451.22346  24663871.1044   24663870.2154
     -1024.0854       -797.9854
  22180697.9074  -17611198.76247 -13702990.58647  22180698.0904   22180696.8094
     -3126.5284      -2436.2484
  22955111.9714  -11873951.85347  -9229719.64846  22955111.1264   22955113.2184
      3563.4874       2776.7384
  24457741.1164   -4648583.13346  -3578917.47546  24457740.5934   24457741.4664
      3132.5224       2440.9264
 06  6 24  8 20 30.0000000  0  9G13G17G 4G24G 2G 9G28G10G 5
  24499352.2384   -5424089.25346  -4203041.49646  24499354.3084   24499355.0684
      1095.4774        853.6244
  21595614.0634  -20668452.38348 -16092539.67348  21595614.2294   21595614.3404
      -187.1484       -145.8374
  21124016.2274  -20430470.06948 -15861049.30547  21124017.2354   21124017.0114
     -1350.4684      -1052.3184
  22755868.4064  -11167267.04948  -8646792.60147  22755867.0474   22755868.5464
     -2266.9574      -1766.4664
  21649155.2944  -21353339.15648 -16580508.48447  21649154.9334   21649153.5584
       546.6894        425.9864
  24669739.7474   -3107417.09846  -2416419.78546  24669738.9984   24669742.0604
     -1031.5614       -803.8064
  22198572.4984  -17517268.60147 -13629798.25347  22198571.6984   22198571.4014
     -3135.2564      -2443.0614
  22934782.5904  -11980785.25847  -9312966.46546  22934781.9964   22934782.7864
      3559.0414       2773.2764
  24439873.5154   -4742474.37546  -3652079.52446  24439871.7624   24439875.8024
      3127.2734       2436.8424
 06  6 24  8 21  0.0000000  0  9G13G17G 4G24G 2G 9G28G10G 5
  24493130.4714   -5456793.84646  -4228525.57146  24493130.8014   24493131.1274
      1086.4554        846.5884
  21596708.6744  -20662701.68848 -16088058.61148  21596708.6864   21596708.3754
      -195.0024       -151.9554
  21131745.7564  -20389854.30148 -15829400.65547  21131746.2064   21131746.4894
     -1355.9864      -1056.6184
  22768812.9884  -11099243.50747  -8593787.24747  22768811.6494   22768813.7814
     -2266.5804      -1766.1694
  21646061.1964  -21369597.88448 -16593177.61247  21646060.9684   21646059.7854
       538.3684        419.4944
  24675659.7624   -3076303.13946  -2392175.16046  24675658.5154   24675660.9984
     -1041.6584       -811.6834
  22216507.7564  -17423020.55447 -13556358.20947  22216506.1754   22216506.5064
     -3146.8574      -2452.0824
  22914489.2064  -12087422.05947  -9396060.06646  22914488.3104   22914491.7014
      3551.2314       2767.1824
  24422048.4794   -4836138.88146  -3725064.82846  24422049.4314   24422051.4974
      3118.5494       2430.0454
 06  6 24  8 21 30.0000000  0  9G13G17G 4G24G 2G 9G28G10G 5
  24486951.3354   -5489261.35446  -4253824.90246  24486953.0514   24486952.2724
      1078.0144        840.0174
  21597842.2034  -20656745.32948 -16083417.29848  21597842.0984   21597841.6564
      -202.4084       -157.7244
  21139499.5214  -20349104.29648 -15797647.40947  21139500.1224   21139500.0834
     -1360.9854      -1060.5004
  22781748.1574  -11031265.51147  -8540817.37847  22781749.5074   22781750.6364
     -2265.5434      -1765.3544
  21643009.9154  -21385633.99148 -16605673.27747  21643009.6654   21643008.6274
       530.4594        413.3414
  24681630.6164   -3044919.49146  -2367720.35746  24681632.1544   24681633.7694
     -1051.3584       -819.2454
  22234501.3134  -17328458.97647 -13482673.87147  22234501.4654   22234500.8644
     -3157.6414      -2460.5304
  22894234.9304  -12193860.53447  -9478999.13446  22894233.5974   22894235.6184
      3544.2454       2761.7484
  24404269.5754   -4929575.27546  -3797872.36146  24404268.8654   24404270.5154
      3110.3864       2423.6674
 06  6 24  8 22  0.0000000  0  9G13G17G 4G24G 2G 9G28G10G 5
  24480818.1874   -5521495.82546  -4278942.66646  24480818.4404   24480818.5534
      1070.1714        833.8874
  21599014.0394  -20650588.37848 -16078619.68148  21599013.7814   21599013.9504
      -208.6384       -162.5814
  21147278.8494  -20308228.29548 -15765795.98547  21147278.8184   21147279.4214
     -1364.7634      -1063.4674
  22794674.3384  -10963340.56847  -8487888.84847  22794674.4454   22794675.9454
     -2263.2744      -1763.6074
  21639998.9694  -21401455.32048 -16618001.57847  21639998.8514   21639997.7594
       523.7004        408.0824
  24687654.1254   -3013274.75846  -2343062.13046  24687653.6534   24687653.3544
     -1059.2414       -825.3894
  22252553.9764  -17233592.65647 -13408752.07247  22252554.6654   22252553.2534
     -3167.5204      -2468.1984
  22874017.6474  -12300104.42947  -9561786.57946  22874018.4264   22874019.3744
      3538.0164       2756.8874
  24386531.4804   -5022787.49846  -3870505.31646  24386530.9064   24386531.7454
      3102.8854       2417.8304
 06  6 24  8 22 30.0000000  0  9G13G17G 4G24G 2G 9G28G10G 5
  24474730.9694   -5553485.50646  -4303869.67446  24474731.7864   24474729.9064
      1062.5424        827.9504
  21600225.4264  -20644220.56248 -16073657.74248  21600225.7434   21600225.5774
      -215.2714       -167.7444
  21155082.4054  -20267219.54148 -15733841.10647  21155082.5344   21155082.7874
     -1368.6034      -1066.4414
  22807591.9354  -10895461.47847  -8434996.05447  22807590.4784   22807592.5564
     -2261.4554      -1762.2034
  21637030.3964  -21417054.31748 -16630156.63447  21637030.5664   21637028.8634
       516.7514        402.6574
  24693726.2294   -2981363.17946  -2318195.97546  24693725.7734   24693727.6984
     -1067.8914       -832.1314
  22270664.9414  -17138414.96347 -13334587.62447  22270665.3044   22270664.1794
     -3177.3024      -2475.8274
  22853840.7334  -12406141.79147  -9644413.09746  22853839.3664   22853840.6154
      3531.6304       2751.9294
  24368837.4264   -5115764.35546  -3942954.78946  24368838.0514   24368839.0904
      3095.7534       2412.2704
 06  6 24  8 23  0.0000000  0  9G13G17G 4G24G 2G 9G28G10G 5
  24468689.8144   -5585234.23946  -4328608.91846  24468688.6794   24468690.0634
      1053.9554        821.2584
  21601476.0144  -20637646.10448 -16068534.79348  21601476.3394   21601476.6934
      -222.7554       -173.5844
  21162909.5124  -20226085.94148 -15701788.95047  21162910.2014   21162910.2764
     -1373.2654      -1070.0844
  22820498.1654  -10827635.60747  -8382144.73847  22820497.8174   22820499.6634
     -2260.1404      -1761.1564
  21634103.5704  -21432438.44648 -16642144.25647  21634102.9324   21634101.9574
       509.0304        396.6254
  24699847.5834   -2949192.69246  -2293128.05145  24699845.0004   24699849.7664
     -1076.7684       -839.0574
  22288834.6924  -17042935.65147 -13260188.17047  22288833.5044   22288834.8184
     -3187.8244      -2484.0214
  22833700.1774  -12511976.09047  -9726881.37846  22833699.5834   22833700.8874
      3524.5304       2746.3944
  24351189.1434   -5208509.31746  -4015223.53946  24351189.7574   24351190.9534
      3087.5274       2405.8604
 06  6 24  8 23 30.0000000  0  9G13G17G 4G24G 2G 9G28G10G 5
  24462693.0454   -5616741.51746  -4353160.03546  24462694.8884   24462694.8834
      1046.7384        815.6404
  21602766.8214  -20630866.31048 -16063251.83248  21602766.8214   21602766.8684
      -229.1624       -178.5654
  21170759.8634  -20184832.10848 -15669643.10847  21170760.3244   21170760.4004
     -1376.9894      -1072.9734
  22833393.1064  -10759867.02947  -8329338.05847  22833393.7764   22833396.1414
     -2257.8264      -1759.3504
  21631215.8854  -21447611.30648 -16653967.25747  21631215.5124   21631214.3364
       502.4804        391.5534
  24706020.6374   -2916768.97146  -2267862.81245  24706016.3074   24706019.9494
     -1084.9574       -845.4184
  22307060.7124  -16947159.78947 -13185557.63347  22307059.5844   22307060.0864
     -3197.1704      -2491.3064
  22813599.2364  -12617606.71547  -9809190.96246  22813599.0694   22813600.3034
      3517.5444       2740.9344
  24333585.0414   -5301022.45646  -4087311.78446  24333585.7494   24333584.5374
      3079.9654       2399.9754
 06  6 24  8 24  0.0000000  0  9G13G17G 4G24G 2G 9G28G10G 5
  24456744.0164   -5647997.41646  -4377515.27746  24456744.4594   24456747.0144
      1036.9804        808.0354
  21604098.5714  -20623872.14048 -16057801.83048  21604097.9994   21604097.3974
      -237.5434       -185.1144
  21178634.6374  -20143452.47748 -15637399.23447  21178634.4934   21178635.0764
     -1382.1814      -1077.0244
  22846280.5104  -10692149.56947  -8276571.21147  22846280.2204   22846281.2734
     -2257.2964      -1758.9584
  21628370.1014  -21462566.59548 -16665620.71747  21628369.6894   21628368.8994
       494.0274        384.9464
  24712237.4884   -2884087.43146  -2242396.70846  24712237.2204   24712237.0374
     -1094.3324       -852.7274
  22325342.6914  -16851082.36647 -13110692.11447  22325344.5154   22325342.6134
     -3208.6204      -2500.2244
  22793538.1334  -12723023.57347  -9891333.95146  22793537.1344   22793539.8824
      3509.5014       2734.6464
  24316025.5504   -5393293.94246  -4159211.60046  24316026.9054   24316026.3594
      3070.8694       2392.8854
 06  6 24  8 24 30.0000000  0  9G13G17G 4G24G 2G 9G28G10G 5
  24450845.3264   -5679001.29646  -4401674.14546  24450845.8244   24450845.0334
      1029.9954        802.5974
  21605469.3784  -20616663.71348 -16052184.88648  21605470.0774   21605469.4824
      -243.1804       -189.4854
  21186531.8784  -20101950.48748 -15605060.02247  21186532.2744   21186532.1664
     -1384.8974      -1079.1344
  22859156.1144  -10624486.34147  -8223846.61747  22859156.1094   22859157.0714
     -2254.0454      -1756.3894
  21625565.5594  -21477307.13648 -16677106.84547  21625565.2074   21625563.4564
       488.4954        380.6514
  24718502.0324   -2851151.94246  -2216732.67545  24718503.6844   24718504.7604
     -1101.5324       -858.3304
  22343683.1204  -16754707.57847 -13035594.87847  22343681.9444   22343683.4234
     -3216.8384      -2506.6554
  22773520.4454  -12828225.34447  -9973309.38146  22773519.6274   22773519.5184
      3503.6954       2730.1574
  24298514.0664   -5485322.79546  -4230922.37346  24298514.4434   24298514.3984
      3064.1404       2387.6484
 06  6 24  8 25  0.0000000  0  9G13G17G 4G24G 2G 9G28G10G 5
  24444993.6444   -5709751.11546  -4425635.06846  24444993.9364   24444993.8544
      1021.0394        795.6044
  21606881.9104  -20609240.49848 -16046400.55948  21606881.7844   21606881.7254
      -250.8704       -195.4784
  21194452.1454  -20060328.89648 -15572627.61747  21194452.1974   21194452.9394
     -1389.3234      -1082.5734
  22872021.5244  -10556879.44547  -8171165.92847  22872021.2344   22872022.6644
     -2252.8004      -1755.4264
  21622800.0424  -21491835.28948 -16688427.47547  21622800.6274   21622799.0874
       480.8054        374.6624
  24724819.2124   -2817966.02046  -2190873.51446  24724817.5544   24724820.2854
     -1110.4794       -865.3054
  22362077.4394  -16658039.37147 -12960269.01647  22362077.7764   22362078.4844
     -3227.0084      -2514.5654
  22753542.0104  -12933210.08547 -10055115.66646  22753541.2674   22753542.7274
      3495.9534       2724.1404
  24281047.9474   -5577107.57646  -4302443.00546  24281047.2024   24281047.9134
      3055.5604       2380.9594
 06  6 24  8 25 30.0000000  0  9G13G17G 4G24G 2G 9G28G10G 5
  24439189.9474   -5740250.24346  -4449400.58046  24439190.3454   24439192.1414
      1012.0044        788.5794
  21608334.2464  -20601607.10848 -16040452.46748  21608334.7934   21608334.4844
      -258.3104       -201.2794
  21202393.6674  -20018595.85148 -15540108.35847  21202393.7724   21202394.7954
     -1393.3624      -1085.7284
  22884874.0534  -10489336.33847  -8118534.93447  22884873.2964   22884874.8564
     -2250.9394      -1753.9694
  21620074.7814  -21506158.53948 -16699588.44047  21620074.2564   21620073.4734
       473.6154        369.0294
  24731178.6254   -2784538.01546  -2164825.73846  24731179.8664   24731181.9344
     -1118.8814       -871.8624
  22380527.5224  -16561086.50447 -12884721.32147  22380526.9574   22380526.9194
     -3236.7484      -2522.1644
  22733603.9204  -13037980.98647 -10136755.32246  22733603.8284   22733605.6714
      3488.3514       2718.1964
  24263629.3824   -5668651.84447  -4373776.19346  24263627.9174   24263627.6264
      3046.5864       2373.9674
 06  6 24  8 26  0.0000000  0  9G13G17G 4G24G 2G 9G28G10G 5
  24433437.2394   -5770484.31246  -4472959.60046  24433438.2204   24433436.2314
      1002.4044        781.0884
  21609830.3144  -20593749.84848 -16034329.92748  21609829.9054   21609829.8024
      -266.5724       -207.7134
  21210358.4374  -19976740.83248 -15507494.05547  21210358.5864   21210359.6134
     -1398.0324      -1089.3814
  22897717.6054  -10421845.92847  -8065945.01247  22897716.4614   22897718.5664
     -2249.5314      -1752.8744
  21617390.1484  -21520265.56348 -16710580.91947  21617390.3634   21617388.6654
       465.8634        363.0004
  24737589.0634   -2750858.62646  -2138582.06146  24737590.1714   24737591.0144
     -1127.6784       -878.7204
  22399033.1834  -16463839.40847 -12808944.37746  22399032.7814   22399032.8244
     -3247.2814      -2530.3344
  22713710.0044  -13142522.86147 -10218216.51946  22713711.1784   22713712.6204
      3480.2114       2711.8514
  24246255.3924   -5759940.88047  -4444910.47146  24246255.0464   24246256.3334
      3037.8124       2367.1184
 06  6 24  8 26 30.0000000  0  9G13G17G 4G24G 2G 9G28G10G 5
  24427732.4404   -5800458.24146  -4496315.89546  24427733.0444   24427734.8024
       994.0984        774.6094
  21611366.6574  -20585674.41348 -16028037.38048  21611367.0724   21611366.7354
      -273.7374       -213.3024
  21218344.3474  -19934773.24948 -15474792.04847  21218344.7554   21218345.2344
     -1401.5074      -1092.0864
  22910549.0404  -10354417.16447  -8013403.12147  22910548.4454   22910549.9864
     -2247.2954      -1751.1214
  21614745.3014  -21534165.31648 -16721411.89347  21614745.4364   21614743.6054
       459.1034        357.7524
  24744044.4304   -2716937.93646  -2112150.35846  24744043.2234   24744047.8974
     -1135.5414       -884.8374
  22417592.2484  -16366308.43547 -12732946.22146  22417591.3774   22417591.5154
     -3256.2184      -2537.2864
  22693860.4504  -13246840.41047 -10299502.93246  22693858.9834   22693860.9034
      3472.8124       2706.1034
  24228932.6424   -5850979.70146  -4515849.81646  24228932.0984   24228932.0424
      3029.5814       2360.7164
 06  6 24  8 27  0.0000000  0  9G13G17G 4G24G 2G 9G28G10G 5
  24422078.7854   -5830172.16646  -4519469.58246  24422079.6734   24422079.7714
       985.5264        767.9414
  21612944.5264  -20577382.62748 -16021576.24848  21612944.9314   21612944.5824
      -280.4284       -218.5094
  21226351.6504  -19892698.09048 -15442006.20447  21226351.3294   21226351.5254
     -1404.6374      -1094.5104
  22923367.8204  -10287053.96447  -7960912.31547  22923368.7144   22923369.2544
     -2244.7904      -1749.1794
  21612138.9744  -21547861.77448 -16732084.44947  21612138.7894   21612137.3014
       452.7934        352.8324
  24750542.6624   -2682781.64246  -2085535.06446  24750540.5414   24750544.2434
     -1142.8854       -890.5474
  22436204.9674  -16268499.10047 -12656731.14446  22436205.1114   22436204.5064
     -3265.1124      -2544.2434
  22674051.5614  -13350933.82747 -10380614.67946  22674050.5084   22674053.8034
      3465.5504       2700.4144
  24211655.1744   -5941768.78847  -4586594.58546  24211654.6084   24211655.8104
      3021.3694       2354.3214
 06  6 24  8 27 30.0000000  0  9G13G17G 4G24G 2G 9G28G10G 5
  24416476.2934   -5859615.50646  -4542412.44346  24416475.0644   24416475.0894
       977.0884        761.3604
  21614565.7494  -20568864.84848 -16014939.02148  21614565.5274   21614565.3594
      -287.2914       -223.8664
  21234379.4534  -19850508.97448 -15409131.56347  21234380.1564   21234380.7074
     -1407.7834      -1096.9814
  22936175.0234  -10219749.72547  -7908467.46247  22936175.9364   22936176.7194
     -2242.1114      -1747.1104
  21609572.1264  -21561348.46148 -16742593.54547  21609572.2584   21609570.8504
       446.4824        347.9034
  24757088.6194   -2648383.95346  -2058731.67245  24757088.0394   24757089.8094
     -1150.3794       -896.4144
  22454871.6194  -16170406.22147 -12580295.14746  22454870.7314   22454870.4454
     -3274.1244      -2551.2724
  22654288.1164  -13454792.24347 -10461543.30646  22654286.1144   22654288.6794
      3458.4924       2694.9334
  24194427.2084   -6032297.67347  -4657136.51446  24194428.2604   24194429.0614
      3013.7114       2348.3484
 06  6 24  8 28  0.0000000  0  9G13G17G 4G24G 2G 9G28G10G 5
  24410923.1014   -5888794.86446  -4565149.57946  24410924.3274   24410923.5524
       969.4344        755.4044
  21616227.7274  -20560128.57548 -16008131.53448  21616227.9234   21616227.9324
      -293.7964       -228.9234
  21242427.6264  -19808216.29048 -15376176.23247  21242427.6384   21242428.6934
     -1410.4474      -1099.0474
  22948969.6664  -10152514.49047  -7856076.36047  22948969.6444   22948969.5304
     -2238.9544      -1744.6314
  21607044.2474  -21574635.18248 -16752946.82647  21607044.4204   21607042.2014
       440.4784        343.2344
  24763679.4944   -2613756.58646  -2031749.34846  24763678.9594   24763682.0974
     -1156.7544       -901.3634
  22473589.4644  -16072041.53747 -12503647.34646  22473589.5194   22473588.8804
     -3282.2464      -2557.5774
  22634567.7204  -13558421.40047 -10542293.30146  22634566.9714   22634568.1904
      3451.5464       2689.4944
  24177250.2024   -6122572.58147  -4727480.63046  24177249.1954   24177249.8584
      3005.9814       2342.3204
 06  6 24  8 28 30.0000000  0  9G13G17G 4G24G 2G 9G28G10G 5
  24405422.3404   -5917698.68246  -4587672.02546  24405423.9534   24405422.7864
       958.4754        746.8554
  21617933.9394  -20551163.37248 -16001145.66248  21617934.0034   21617933.9194
      -303.0914       -236.1724
  21250496.4904  -19765813.84248 -15343135.35947  21250496.3474   21250497.2484
     -1415.6004      -1103.0734
  22961752.1954  -10085340.96047  -7803733.35547  22961752.4184   22961752.6894
     -2238.6414      -1744.3984
  21604554.9594  -21587714.85948 -16763138.77347  21604554.5114   21604553.4834
       432.0444        336.6484
  24770314.0694   -2578893.53146  -2004583.32445  24770311.7084   24770314.7904
     -1166.9464       -909.2984
  22492361.8184  -15973399.34647 -12426783.30446  22492361.3634   22492360.9994
     -3293.1524      -2566.0814
  22614893.8344  -13661809.79047 -10622855.68646  22614892.0084   22614893.0364
      3441.8724       2681.9524
  24160119.9604   -6212582.67647  -4797618.36646  24160120.6304   24160121.5374
      2995.5254       2334.1624
 06  6 24  8 29  0.0000000  0  9G13G17G 4G24G 2G 9G28G10G 5
  24399976.2244   -5946331.50446  -4609983.30446  24399975.1074   24399974.1844
       949.9354        740.2094
  21619681.7574  -20541974.63848 -15993985.60348  21619682.5134   21619682.4504
      -309.9744       -241.5424
  21258584.4334  -19723310.02448 -15310015.49947  21258584.5474   21258585.3574
     -1418.4674      -1105.3014
  22974521.3764  -10018237.22347  -7751444.73047  22974521.2354   22974523.1914
     -2235.6084      -1742.0094
  21602104.5094  -21600595.43148 -16773175.57147  21602104.3584   21602103.2884
       426.0844        332.0064
  24776990.1564   -2543804.15946  -1977240.96245  24776990.0984   24776991.2254
     -1173.6864       -914.5584
  22511183.0824  -15874488.68447 -12349710.07546  22511182.8904   22511182.1204
     -3301.4764      -2572.5704
  22595264.6784  -13764961.32347 -10703233.49946  22595264.3954   22595266.1324
      3434.6244       2676.3414
  24143043.6274   -6302332.14247  -4867552.97146  24143041.2324   24143043.0714
      2987.2374       2327.7294
 06  6 24  8 29 30.0000000  0  9G13G17G 4G24G 2G 9G28G10G 5
  24394578.8374   -5974686.96746  -4632078.47046  24394579.2544   24394578.1174
       940.2224        732.6494
  21621474.4154  -20532557.41348 -15986647.50448  21621474.6154   21621474.3364
      -317.8234       -247.6414
  21266692.4194  -19680702.86648 -15276815.11647  21266693.0364   21266693.0984
     -1422.1334      -1108.1544
  22987278.2374   -9951200.61947  -7699208.42147  22987278.4614   22987279.3984
     -2233.6044      -1740.4704
  21599692.1964  -21613274.37448 -16783055.26047  21599690.9354   21599689.5124
       419.1574        326.6274
  24783710.4184   -2508487.27246  -1949721.30345  24783711.1784   24783710.1814
     -1181.1024       -920.3354
  22530056.8664  -15775309.12247 -12272427.29446  22530055.5644   22530055.6584
     -3310.6694      -2579.7474
  22575682.1654  -13867869.50047 -10783421.67247  22575680.9374   22575683.0354
      3425.9984       2669.6114
  24126014.2754   -6391814.81947  -4937279.75746  24126012.7354   24126015.2464
      2977.9984       2320.5284
 06  6 24  8 30  0.0000000  0  9G13G17G 4G24G 2G 9G28G10G 5
  24389235.2464   -6002764.64046  -4653957.19546  24389236.7214   24389235.4634
       931.6364        725.9504
  21623310.0874  -20522911.97148 -15979131.58048  21623310.0484   21623310.1404
      -325.0884       -253.3114
  21274819.7244  -19637996.09048 -15243537.10647  21274819.7684   21274820.1984
     -1424.9314      -1110.3444
  23000020.9644   -9884234.08547  -7647026.71947  23000022.1094   23000021.6994
     -2230.8784      -1738.3524
  21597316.5064  -21625755.02548 -16792780.43247  21597316.0514   21597315.1284
       412.9904        321.8104
  24790474.7824   -2472947.82546  -1922028.20245  24790472.7244   24790473.7744
     -1187.8624       -925.6204
  22548979.9534  -15675864.94247 -12194938.34246  22548979.5294   22548978.7484
     -3318.7734      -2586.0574
  22556145.5394  -13970533.41947 -10863419.52346  22556145.1924   22556145.3114
      3418.3934       2663.6704
  24109036.1174   -6481030.18747  -5006798.20146  24109037.8834   24109038.7784
      2969.7084       2314.0494
 06  6 24  8 30 30.0000000  0  8G13G17G 4G24G 2G28G10G 5
  24383947.3314   -6030545.54646  -4675604.65846  24383948.2384   24383948.9794
       921.7284        718.2284
  21625191.2544  -20513020.33448 -15971423.81248  21625192.1174   21625192.1064
      -333.2144       -259.6464
  21282967.6974  -19595175.28648 -15210170.24447  21282967.8604   21282968.5694
     -1428.4734      -1113.0964
  23012753.9984   -9817322.61847  -7594887.90847  23012753.4764   23012756.0114
     -2228.7864      -1736.6964
  21594981.7144  -21638022.54448 -16802339.53447  21594981.9054   21594980.5374
       406.1574        316.4854
  22567956.1914  -15576142.78547 -12117232.76146  22567956.0674   22567955.6484
     -3327.5174      -2592.8674
  22536658.9384  -14072934.24447 -10943212.36746  22536658.4084   22536659.6004
      3409.4624       2656.7374
  24092115.1154   -6569959.44647  -5076093.71546  24092113.9954   24092115.4684
      2960.1244       2306.5834
 06  6 24  8 31  0.0000000  0  8G13G17G 4G24G 2G28G10G 5
  24378714.6974   -6058058.98246  -4697043.69746  24378713.7484   24378714.3264
       912.3664        710.9324
  21627115.6954  -20502913.11148 -15963548.05448  21627115.4894   21627115.4754
      -341.0394       -265.7444
  21291131.7344  -19552273.80648 -15176740.52147  21291131.7234   21291132.7874
     -1431.7634      -1115.6544
  23025470.9404   -9750499.53447  -7542817.98347  23025469.3764   23025470.6874
     -2226.4134      -1734.8354
  21592681.8624  -21650109.54448 -16811757.96647  21592681.8424   21592679.7974
       399.5244        311.3264
  22586978.8404  -15476177.32047 -12039337.62046  22586979.3814   22586979.1754
     -3336.1054      -2599.5484
  22517218.2074  -14175100.24647 -11022822.23347  22517217.2444   22517217.5374
      3401.1324       2650.2344
  24075239.8574   -6658631.93847  -5145189.15246  24075239.3154   24075241.2854
      2950.7744       2299.2984
 06  6 24  8 31 30.0000000  0  8G13G17G 4G24G 2G28G10G 5
  24373531.5004   -6085286.48247  -4718259.94146  24373533.2734   24373530.5374
       901.8574        702.7534
  21629083.5244  -20492573.00848 -15955490.83548  21629083.8304   21629083.0864
      -349.2724       -272.1594
  21299313.7554  -19509277.47448 -15143236.88247  21299313.2344   21299314.3944
     -1435.4934      -1118.5704
  23038172.4894   -9683749.77747  -7490805.17447  23038171.7804   23038174.0654
     -2224.3584      -1733.2594
  21590419.0074  -21662001.49748 -16821024.41747  21590418.6444   21590417.7554
       392.4134        305.7644
  22606050.6474  -15375955.41347 -11961242.60546  22606049.2524   22606051.7854
     -3346.1624      -2607.4034
  22497823.9904  -14277013.20347 -11102234.89647  22497823.8104   22497823.8304
      3392.1804       2643.2664
  24058419.3544   -6747029.22147  -5214070.15746  24058419.8714   24058421.2294
      2941.0434       2291.7214
 06  6 24  8 32  0.0000000  0  8G13G17G 4G24G 2G28G10G 5
  24368407.2984   -6112220.64146  -4739247.57146  24368405.8084   24368406.3414
       893.1274        695.9444
  21631096.5644  -20481993.43748 -15947247.02048  21631096.4384   21631096.4654
      -356.2474       -277.6024
  21307514.3814  -19466183.53848 -15109657.19047  21307514.5054   21307514.9594
     -1437.5884      -1120.2094
  23050861.6104   -9617069.64547  -7438846.64347  23050861.2744   23050863.6834
     -2221.0474      -1730.6684
  21588193.9964  -21673694.82648 -16830136.10147  21588193.2814   21588192.2414
       387.0174        301.5714
  22625171.7494  -15275474.73447 -11882945.99846  22625170.7144   22625171.0074
     -3353.2724      -2612.9444
  22478480.0784  -14378665.45947 -11181444.44846  22478479.7034   22478480.2534
      3384.2194       2637.0534
  24041651.7854   -6835144.12447  -5282731.12346  24041650.2634   24041652.8774
      2932.9174       2285.3844
 06  6 24  8 32 30.0000000  0  8G13G17G 4G24G 2G28G10G 5
  24363336.5834   -6138864.20946  -4760008.76446  24363335.3144   24363337.8624
       882.6514        687.7754
  21633154.6314  -20471177.77148 -15938819.22048  21633154.7714   21633154.6054
      -364.9894       -284.4164
  21315732.7184  -19422998.51448 -15076006.51747  21315732.1874   21315732.6874
     -1441.6464      -1123.3554
  23063535.6724   -9550465.28147  -7386947.13847  23063535.0694   23063537.5254
     -2219.4754      -1729.5004
  21586005.6644  -21685195.22648 -16839097.43447  21586005.2004   21586003.1934
       379.5254        295.7304
  22644339.8554  -15174743.30447 -11804453.98246  22644338.8144   22644339.2254
     -3362.6874      -2620.2824
  22459186.0934  -14480059.04647 -11260452.45247  22459186.4114   22459186.2894
      3374.8254       2629.7184
  24024937.0884   -6922979.04947  -5351173.86146  24024936.9074   24024937.1274
      2922.4284       2277.2104
 06  6 24  8 33  0.0000000  0  8G13G17G 4G24G 2G28G10G 5
  24358322.2134   -6165216.00446  -4780542.63646  24358320.6414   24358320.7294
       873.4454        680.6104
  21635258.5694  -20460126.20548 -15930207.61948  21635257.8964   21635257.7134
      -371.9834       -289.8554
  21323966.9064  -19379725.54348 -15042287.31747  21323966.9074   21323968.0454
     -1443.5534      -1124.8584
  23076195.1614   -9483939.03347  -7335108.51347  23076194.5964   23076196.3394
     -2215.8084      -1726.6014
  21583852.5174  -21696506.19548 -16847911.16847  21583852.7464   21583851.2274
       374.1684        291.5534
  22663556.6964  -15073765.33047 -11725769.83146  22663554.7794   22663555.3004
     -3369.7404      -2625.7774
  22439941.2744  -14581192.35947 -11339257.61947  22439940.7794   22439941.2694
      3367.0574       2623.6934
  24008274.9554   -7010532.97947  -5419397.75546  24008275.6004   24008276.1504
      2913.8374       2270.5244
 06  6 24  8 33 30.0000000  0  8G13G17G 4G24G 2G28G10G 5
  24353364.7944   -6191268.89746  -4800843.58646  24353365.5174   24353363.6974
       862.2794        671.8994
  21637406.7304  -20448832.51348 -15921407.33348  21637406.8804   21637406.4124
      -381.7944       -297.5064
  21332218.0074  -19336361.74748 -15008497.34647  21332218.8604   21332219.8264
     -1448.2254      -1128.4764
  23088840.7664   -9417487.22947  -7283327.87247  23088840.7844   23088841.0034
     -2215.1444      -1726.0454
  21581737.2484  -21707624.07648 -16856574.44947  21581736.7934   21581735.6734
       366.0534        285.2514
  22682818.2074  -14972538.80747 -11646892.03646  22682818.0214   22682817.7264
     -3379.5934      -2633.4524
  22420746.2554  -14682057.86047 -11417854.09847  22420746.2054   22420748.8014
      3356.5304       2615.4734
  23991670.2474   -7097798.84647  -5487397.12946  23991667.8974   23991671.2704
      2902.5054       2261.6774
 06  6 24  8 34  0.0000000  0  8G13G17G 4G24G 2G28G10G 5
  24348460.9484   -6217029.02546  -4820916.40946  24348461.1624   24348461.7394
       853.6074        665.1454
  21639600.2834  -20437303.72648 -15912423.86548  21639600.9814   21639600.2604
      -388.5274       -302.7434
  21340485.8884  -19292917.11548 -14974644.38247  21340485.4754   21340486.7374
     -1449.8084      -1129.7044
  23101469.5084   -9351119.44347  -7231612.72847  23101469.7904   23101471.6594
     -2211.2114      -1723.0304
  21579656.5994  -21718558.38648 -16865094.68547  21579656.3774   21579655.0174
       361.0994        281.3894
  22702126.2664  -14871074.93047 -11567829.27646  22702125.6054   22702125.7304
     -3386.2564      -2638.6234
  22401601.9054  -14782661.05847 -11496246.19747  22401602.3034   22401604.2754
      3348.6754       2609.3864
  23975118.8374   -7184782.61947  -5555176.64146  23975117.3964   23975117.8084
      2894.1934       2255.2194
 06  6 24  8 34 30.0000000  0  8G13G17G 4G24G 2G28G10G 5
  24343618.3774   -6242485.63046  -4840752.74146  24343618.9724   24343615.8564
       843.9704        657.6344
  21641840.9244  -20425530.12048 -15903249.63248  21641841.4424   21641840.5314
      -396.3974       -308.8814
  21348769.5174  -19249385.45948 -14940723.61047  21348770.2384   21348770.5304
     -1452.4074      -1131.7554
  23114084.4684   -9284828.85247  -7179957.72747  23114083.6824   23114087.0914
     -2208.5694      -1720.9564
  21577611.2484  -21729302.65148 -16873466.83147  21577611.4614   21577610.7514
       355.1044        276.6994
  22721479.6364  -14769368.42447 -11488577.44446  22721479.6254   22721479.6714
     -3394.0034      -2644.6914
  22382511.0654  -14882991.11947 -11574425.47247  22382510.8134   22382511.1694
      3339.9774       2602.5744
  23958620.8584   -7271473.75947  -5622728.22046  23958619.8094   23958621.6144
      2884.7564       2247.8684
 06  6 24  8 35  0.0000000  0  8G13G17G 4G24G 2G28G10G 5
  24338831.6794   -6267632.61546  -4860347.76446  24338831.3464   24338832.3154
       832.5874        648.7674
  21644128.8074  -20413506.87848 -15893880.87048  21644129.0674   21644128.7644
      -405.5164       -315.9894
  21357070.4994  -19205764.69748 -14906733.40247  21357070.0814   21357070.4804
     -1456.0704      -1134.5984
  23126684.8084   -9218612.96447  -7128360.92947  23126684.7774   23126686.3274
     -2206.4124      -1719.2894
  21575603.3914  -21739854.22148 -16881688.82447  21575603.3594   21575603.2424
       347.8994        271.0804
  22740880.1274  -14667418.54847 -11409135.98946  22740879.4744   22740880.5834
     -3402.9744      -2651.6604
  22363471.7814  -14983041.50747 -11652386.79647  22363471.0254   22363471.6114
      3329.8384       2594.6824
  23942181.6194   -7357866.32447  -5690047.06946  23942181.4604   23942182.2184
      2874.5794       2239.9214
 06  6 24  8 35 30.0000000  0  8G13G17G 4G24G 2G28G10G 5
  24334103.3504   -6292478.45746  -4879708.17346  24334104.8744   24334102.9874
       823.8634        641.9734
  21646462.7024  -20401243.01948 -15884324.62048  21646463.3254   21646462.2614
      -411.7984       -320.8744
  21365385.3324  -19162067.33448 -14872683.50847  21365385.5494   21365386.2614
     -1456.8424      -1135.1934
  23139268.7514   -9152483.08547  -7076831.16547  23139269.5424   23139269.5934
     -2201.7524      -1715.6584
  21573630.5824  -21750224.94548 -16889769.91047  21573630.2774   21573628.5314
       343.7914        267.8924
  22760324.6714  -14565238.55947 -11329515.23146  22760325.4524   22760324.5414
     -3408.5694      -2656.0104
  22344485.1144  -15082820.11147 -11730136.34847  22344483.9734   22344485.8194
      3322.4724       2588.9324
  23925795.4414   -7443968.24647  -5757139.47046  23925795.8204   23925796.8504
      2866.2274       2233.4244
 06  6 24  8 36  0.0000000  0  8G13G17G 4G24G 2G28G10G 5
  24329433.5424   -6317016.60946  -4898828.81246  24329432.8494   24329435.1224
       812.9424        633.4704
  21648843.0324  -20388733.23548 -15874576.73848  21648843.7294   21648843.1944
      -420.7844       -327.8784
  21373715.4144  -19118291.01448 -14838572.08947  21373715.7104   21373716.8344
     -1460.2484      -1137.8594
  23151837.0254   -9086436.42147  -7025366.24047  23151837.8934   23151840.5604
     -2199.8794      -1714.1844
  21571691.8194  -21760412.28948 -16897708.09047  21571691.9404   21571690.3384
       336.9144        262.5474
  22779812.3924  -14462827.56547 -11249714.43346  22779812.8054   22779811.9024
     -3417.1044      -2662.6824
  22325549.6424  -15182320.07447 -11807668.77347  22325549.5124   22325551.0954
      3312.2664       2580.9814
  23909467.2654   -7529773.44347  -5824000.66246  23909466.9574   23909467.8124
      2855.7384       2225.2604
 06  6 24  8 36 30.0000000  0  8G13G17G 4G24G 2G28G10G 5
  24324823.3654   -6341249.48646  -4917711.55746  24324824.4534   24324824.1174
       801.8584        624.8304
  21651269.6264  -20375980.87248 -15864639.82848  21651270.0734   21651269.5554
      -429.8274       -334.9234
  21382060.1744  -19074442.19948 -14804404.17947  21382060.2794   21382060.3014
     -1463.4464      -1140.3394
  23164388.9564   -9020478.93247  -6973970.78147  23164387.0194   23164390.4644
     -2197.7244      -1712.5314
  21569787.4884  -21770422.14948 -16905507.97847  21569786.6814   21569785.8004
       330.0904        257.2094
  22799343.9624  -14360193.23647 -11169739.65646  22799343.9494   22799342.8974
     -3425.4584      -2669.1744
  22306668.3164  -15281543.42247 -11884985.67147  22306668.4574   22306669.7864
      3302.4304       2573.3394
  23893196.0394   -7615284.08747  -5890632.33446  23893195.9224   23893196.2254
      2844.6834       2216.6414
 06  6 24  8 37  0.0000000  0  8G13G17G 4G24G 2G28G10G 5
  24320273.1874   -6365159.88246  -4936343.01546  24320273.8674   24320272.7534
       792.0614        617.1894
  21653745.7964  -20362969.39348 -15854501.01248  21653746.1354   21653745.8274
      -437.6494       -341.0204
  21390420.6244  -19030507.75548 -14770169.54747  21390420.6434   21390422.0494
     -1465.2924      -1141.7824
  23176926.4564   -8954596.51847  -6922633.85647  23176925.3704   23176926.8894
     -2194.3314      -1709.8764
  21567918.0274  -21780241.18548 -16913159.17447  21567918.0954   21567916.7184
       324.6894        252.9954
  22818918.7534  -14257323.54147 -11089581.45946  22818918.1614   22818918.0204
     -3431.8314      -2674.1584
  22287843.0444  -15380472.61547 -11962073.34847  22287843.2374   22287844.1844
      3293.1864       2566.1094
  23876981.8234   -7700483.04447  -5957021.13146  23876982.6024   23876983.9604
      2835.1734       2209.2264
 06  6 24  8 37 30.0000000  0  8G13G17G 4G24G 2G28G10G 5
  24315783.3144   -6388759.13246  -4954732.03246  24315783.4124   24315782.8944
       780.2174        607.9644
  21656269.4824  -20349711.15048 -15844169.91248  21656269.0574   21656268.9474
      -447.2504       -348.5064
  21398794.5754  -18986503.17948 -14735880.26247  21398794.7654   21398795.1504
     -1469.2414      -1144.8704
  23189446.2054   -8888804.14447  -6871367.06947  23189445.2554   23189446.3474
     -2193.0314      -1708.8924
  21566083.4004  -21789884.22648 -16920673.22547  21566083.5414   21566081.9624
       317.2104        247.1824
  22838535.8814  -14154234.79947 -11009252.55546  22838535.4784   22838535.0834
     -3441.4114      -2681.6224
  22269072.1314  -15479118.58447 -12038940.32647  22269070.5984   22269072.3064
      3282.1434       2557.5174
  23860825.7634   -7785381.78947  -6023175.95046  23860826.5984   23860827.1904
      2823.7004       2200.2774
 06  6 24  8 38  0.0000000  0  8G13G17G 4G24G 2G28G10G 5
  24311352.3404   -6412039.80546  -4972872.81446  24311354.5024   24311352.2254
       771.6814        601.3054
  21658839.6134  -20336199.99748 -15833641.74548  21658840.3084   21658839.7704
      -453.4494       -353.3194
  21407182.2474  -18942424.76148 -14701533.44547  21407182.4414   21407182.9054
     -1469.3874      -1144.9684
  23201949.1534   -8823097.85347  -6820167.36246  23201947.4234   23201949.8514
     -2187.6564      -1704.6424
  21564282.5164  -21799347.60848 -16928047.28347  21564282.3404   21564281.3994
       313.5734        244.3584
  22858195.8774  -14050924.96147 -10928751.38646  22858195.8334   22858194.7974
     -3446.6284      -2685.6914
  22250355.1524  -15577473.40847 -12115580.45547  22250354.7404   22250355.8814
      3274.8284       2551.8254
  23844731.1464   -7869972.63947  -6089090.93546  23844731.4114   23844730.1464
      2815.4024       2193.8264
 06  6 24  8 38 30.0000000  0  8G13G17G 4G24G 2G28G10G 5
  24306984.1404   -6435003.47346  -4990766.57646  24306982.1404   24306983.0904
       761.1164        593.0814
  21661458.7624  -20322438.45748 -15822918.46148  21661458.7354   21661458.4704
      -461.8804       -359.9004
  21415583.4524  -18898278.09548 -14667133.44647  21415583.6264   21415583.1624
     -1471.6754      -1146.7584
  23214434.6584   -8757482.32147  -6769038.37546  23214434.1904   23214437.7814
     -2184.4954      -1702.1934
  21562515.5694  -21808636.20148 -16935285.13947  21562514.8024   21562513.5854
       307.8424        239.8734
  22877894.1264  -13947400.55547 -10848083.04046  22877893.7304   22877895.3474
     -3453.4804      -2691.0034
  22231693.3594  -15675538.02047 -12191994.43647  22231692.5464   22231694.9324
      3264.9074       2544.0974
  23828689.9704   -7954257.14447  -6154767.15846  23828689.7764   23828692.5494
      2804.9994       2185.7174
 06  6 24  8 39  0.0000000  0  8G13G17G 4G24G 2G28G10G 5
  24302673.2914   -6457642.39246  -5008407.29946  24302675.2804   24302676.1464
       748.7824        583.4614
  21664126.9494  -20308419.26348 -15811994.42048  21664127.1404   21664126.4644
      -471.4844       -367.3804
  21423997.4384  -18854059.55348 -14632677.43547  21423997.8284   21423997.9164
     -1475.2864      -1149.5664
  23226905.0584   -8691952.70347  -6717976.34647  23226904.5074   23226906.7634
     -2182.8584      -1700.9254
  21560781.1924  -21817745.96048 -16942383.65647  21560781.7284   21560780.3004
       300.7824        234.3814
  22897637.1224  -13843659.12147 -10767245.53646  22897637.4484   22897637.2684
     -3461.4704      -2697.2354
  22213089.6334  -15773304.20747 -12268175.87647  22213090.0644   22213090.5984
      3253.9014       2535.4814
  23812713.0024   -8038227.43547  -6220198.50746  23812711.4314   23812712.3244
      2793.9644       2177.1174
 06  6 24  8 39 30.0000000  0  8G13G17G 4G24G 2G28G10G 5
  24298428.2414   -6479958.31446  -5025796.33146  24298427.2314   24298426.2814
       739.2624        576.0504
  21666843.0474  -20294145.48448 -15800871.99448  21666843.1514   21666842.6554
      -479.4684       -373.5934
  21432424.8714  -18809774.95448 -14598169.95847  21432424.4794   21432425.3544
     -1476.8124      -1150.7434
  23239357.8594   -8626514.61647  -6666985.62746  23239356.7954   23239358.0744
     -2179.0934      -1697.9824
  21559080.9324  -21826682.45348 -16949347.15547  21559080.8474   21559078.9944
       295.5734        230.3354
  22917417.6214  -13739707.66747 -10686244.43146  22917417.6734   22917418.1514
     -3467.8014      -2702.1714
  22194542.2104  -15870773.66247 -12344126.09547  22194541.3104   22194542.5204
      3244.6894       2528.3364
  23796793.3654   -8121885.47647  -6285386.64246  23796791.4964   23796792.1464
      2783.8894       2169.2724
 06  6 24  8 40  0.0000000  0  8G13G17G 4G24G 2G28G10G 5
  24294244.2364   -6501946.22446  -5042929.74646  24294243.0884   24294244.0184
       726.8914        566.4044
  21669608.2394  -20279612.79548 -15789547.82648  21669608.5854   21669608.0754
      -489.5654       -381.4954
  21440864.6274  -18765423.02748 -14563610.01247  21440864.9494   21440864.9414
     -1480.2654      -1153.4614
  23251793.1204   -8561165.91447  -6616064.55746  23251792.7514   23251794.3774
     -2177.5974      -1696.8524
  21557414.1774  -21835444.29448 -16956174.55847  21557413.8704   21557412.3404
       288.3524        224.6784
  22937239.5594  -13635546.12647 -10605079.57846  22937237.8814   22937237.7694
     -3476.0054      -2708.5824
  22176051.2854  -15967940.50047 -12419840.49247  22176050.1984   22176052.4594
      3233.0374       2519.2744
  23780933.7194   -8205225.98047  -6350327.26546  23780932.2004   23780934.6904
      2771.8644       2159.8884
 06  6 24  8 40 30.0000000  0  8G13G17G 4G24G 2G28G10G 5
  24290123.4144   -6523603.79746  -5059805.78346  24290122.9644   24290124.0404
       717.3244        558.9584
  21672423.1454  -20264820.06948 -15778021.02848  21672423.8254   21672422.8734
      -496.6324       -386.9834
  21449316.8624  -18721005.42848 -14528998.89947  21449317.5624   21449318.2954
     -1480.6004      -1153.6974
  23264211.6244   -8495907.68447  -6565213.98646  23264210.5734   23264210.7984
     -2172.7304      -1693.0264
  21555779.3074  -21844032.61348 -16962866.75247  21555779.5784   21555778.4624
       284.2834        221.5244
  22957099.9794  -13531177.51147 -10523753.37546  22957100.1974   22957099.5384
     -3481.2424      -2712.6464
  22157619.1144  -16064802.14347 -12495317.10247  22157617.9694   22157620.8954
      3224.5054       2512.6214
  23765136.1594   -8288246.65847  -6415018.67946  23765135.5904   23765136.8654
      2762.8104       2152.8454
 06  6 24  8 41  0.0000000  0  8G13G17G 4G24G 2G28G10G 5
  24286065.1154   -6544933.00446  -5076425.92646  24286064.5514   24286062.4594
       703.9844        548.5344
  21675286.1284  -20249769.98448 -15766293.68848  21675287.2224   21675286.8644
      -507.2474       -395.2704
  21457780.8004  -18676527.85648 -14494341.05047  21457780.9214   21457782.2494
     -1484.8854      -1157.0594
  23276611.6284   -8430745.29747  -6514438.10046  23276610.5344   23276613.6694
     -2171.8144      -1692.3374
  21554176.5694  -21852452.26948 -16969427.51547  21554176.9024   21554175.1604
       276.4624        215.4114
  22976998.7784  -13426608.91647 -10442271.37446  22976997.4454   22976999.1594
     -3490.7684      -2720.0904
  22139245.6204  -16161360.05747 -12570557.03147  22139244.9114   22139245.1834
      3212.0514       2502.8744
  23749397.2584   -8370949.39647  -6479462.38446  23749396.6294   23749397.5384
      2749.9754       2142.8304
 06  6 24  8 41 30.0000000  0  8G13G17G 4G24G 2G28G10G 5
  24282069.5074   -6565926.49547  -5092784.46546  24282070.2274   24282069.2464
       694.7504        541.3624
  21678201.1704  -20234455.70648 -15754360.49248  21678201.5594   21678201.1724
      -514.4194       -400.8504
  21466256.2524  -18631986.77948 -14459633.72147  21466256.8624   21466257.6334
     -1485.2954      -1157.3864
  23288994.6724   -8365674.34247  -6463733.45046  23288994.2404   23288995.5144
     -2167.1034      -1688.6634
  21552607.5434  -21860700.36448 -16975854.60147  21552607.7304   21552606.0894
       272.5654        212.3894
  22996936.7544  -13321837.89047 -10360631.61946  22996936.2244   22996935.5424
     -3495.1584      -2723.4974
  22120930.1294  -16257606.13647 -12645553.97047  22120928.4404   22120930.5024
      3203.4414       2496.2034
  23733721.3934   -8453326.61247  -6543652.41246  23733720.0414   23733722.7144
      2740.7534       2135.6614
 06  6 24  8 42  0.0000000  0  8G13G17G 4G24G 2G28G10G 5
  24278138.1324   -6586583.14247  -5108880.56346  24278139.2294   24278140.6504
       683.3844        532.5034
  21681164.9404  -20218877.38548 -15742221.53448  21681165.6304   21681165.4254
      -523.3364       -407.7964
  21474743.9024  -18587385.09048 -14424879.16047  21474743.9754   21474744.4144
     -1487.2854      -1158.9234
  23301358.4934   -8300696.73447  -6413101.54046  23301357.9644   23301359.9304
     -2164.0444      -1686.3004
  21551070.5444  -21868779.07348 -16982149.68947  21551070.3334   21551068.3624
       266.8234        207.9094
  23016910.6914  -13216868.53347 -10278837.30946  23016911.4034   23016912.4454
     -3502.1384      -2728.9424
  22102674.8154  -16353538.87648 -12720306.73747  22102673.0314   22102674.9324
      3192.8824       2487.9574
  23718107.0804   -8535377.19447  -6607587.94346  23718108.4514   23718108.8254
      2729.5684       2126.9394
 06  6 24  8 42 30.0000000  0  8G13G17G 4G24G 2G28G10G 5
  24274271.1704   -6606903.63447  -5124714.71046  24274271.2444   24274272.4144
       671.2944        523.0834
  21684179.7194  -20203036.70348 -15729878.14748  21684180.1554   21684179.9014
      -533.0104       -415.3344
  21483241.9524  -18542727.21148 -14390080.81147  21483242.2544   21483242.5484
     -1490.2054      -1161.1924
  23313705.0774   -8235816.48347  -6362545.51746  23313705.8054   23313705.2034
     -2161.5684      -1684.3294
  21549563.8624  -21876692.58648 -16988316.06447  21549563.9114   21549562.4184
       260.3774        202.8804
  23036922.9834  -13111706.51947 -10196892.91146  23036922.3974   23036922.3684
     -3509.1534      -2734.4094
  22084478.6474  -16449158.63648 -12794815.63847  22084476.6994   22084479.1334
      3181.5154       2479.0834
  23702555.6544   -8617101.87447  -6671269.48246  23702554.3574   23702557.7994
      2718.0094       2117.9314
 06  6 24  8 43  0.0000000  0  8G13G17G 4G24G 2G28G10G 5
  24270471.2254   -6626881.80047  -5140282.12046  24270471.1784   24270470.6214
       660.4434        514.6234
  21687245.3714  -20186928.68048 -15717326.44248  21687245.6804   21687244.9344
      -541.1284       -421.6444
  21491751.7034  -18498011.14848 -14355237.12947  21491751.4954   21491751.8804
     -1491.1544      -1161.9364
  23326034.2764   -8171030.67247  -6312063.04846  23326032.6534   23326035.0544
     -2157.6044      -1681.2654
  21548090.4514  -21884438.39548 -16994351.75147  21548090.2284   21548088.6254
       255.7814        199.3114
  23056970.5724  -13006351.17847 -10114797.81646  23056969.8704   23056970.0144
     -3514.5494      -2738.5964
  22066343.6314  -16544458.97148 -12869075.63947  22066342.3904   22066343.9114
      3171.5594       2471.3354
  23687068.1894   -8698494.65347  -6734692.43246  23687067.8374   23687068.2354
      2707.5994       2109.8194
 06  6 24  8 43 30.0000000  0  8G13G17G 4G24G 2G28G10G 5
  24266732.6234   -6646518.76146  -5155583.64546  24266732.9414   24266732.8604
       647.9234        504.8854
  21690360.6464  -20170554.75648 -15704567.54348  21690360.9064   21690361.0314
      -551.3684       -429.6304
  21500270.9114  -18453241.65248 -14320351.80647  21500271.0504   21500271.2564
     -1494.1674      -1164.2724
  23338342.4424   -8106343.57347  -6261657.51246  23338342.1964   23338342.4394
     -2155.7654      -1679.8324
  21546647.3504  -21892020.91148 -17000260.20047  21546647.1304   21546646.0574
       249.0184        194.0424
  23077054.8514  -12900808.67147 -10032556.91846  23077055.3284   23077055.2404
     -3522.3404      -2744.6784
  22048269.6804  -16639440.48048 -12943087.20547  22048269.2154   22048269.8764
      3159.7044       2462.1174
  23671641.6984   -8779556.39347  -6797857.43046  23671639.8614   23671642.6754
      2695.2874       2100.2174
 06  6 24  8 44  0.0000000  0  8G13G17G 4G24G 2G28G10G 5
  24263061.1044   -6665808.05946  -5170614.26846  24263062.9684   24263062.6804
       637.3964        496.6744
  21693528.5244  -20153909.19048 -15691596.97348  21693528.4444   21693528.6004
      -559.1704       -435.7184
  21508801.0044  -18408415.35048 -14285422.22347  21508801.1714   21508801.3854
     -1494.9684      -1164.9184
  23350634.2984   -8041751.11047  -6211325.72646  23350634.4024   23350634.3664
     -2151.4244      -1676.4414
  21545236.6674  -21899436.74048 -17006038.76347  21545236.1114   21545234.1164
       244.6124        190.6064
  23097174.8064  -12795076.79847  -9950168.47146  23097175.9274   23097176.0094
     -3527.2134      -2748.4744
  22030257.4444  -16734095.61948 -13016844.44547  22030256.5234   22030257.9494
      3150.0414       2454.5864
  23656279.8274   -8860279.95247  -6860758.86346  23656280.7374   23656280.9504
      2685.1574       2092.3244
 06  6 24  8 44 30.0000000  0  8G13G17G 4G24G 2G28G10G 5
  24259457.3294   -6684756.83947  -5185379.54446  24259456.7084   24259455.5014
       628.1124        489.4394
  21696746.5954  -20137000.04148 -15678421.00848  21696746.4304   21696746.5764
      -565.9884       -441.0334
  21517339.6904  -18363543.50348 -14250457.15147  21517339.5224   21517340.4384
     -1494.5634      -1164.5914
  23362906.0664   -7977263.56347  -6161075.72046  23362904.7114   23362907.4844
     -2145.8344      -1672.0594
  21543854.3954  -21906696.88948 -17011696.01647  21543855.2064   21543853.0544
       241.4574        188.1434
  23117330.2294  -12689168.23947  -9867642.30746  23117329.9944   23117328.9664
     -3531.2924      -2751.6574
  22012305.6934  -16828431.25548 -13090352.72047  22012303.8504   22012305.8734
      3141.2034       2447.6774
  23640983.5504   -8940672.59547  -6923402.50546  23640982.1794   23640982.8734
      2676.1894       2085.3434
 06  6 24  8 45  0.0000000  0  8G13G17G 4G24G 2G28G10G 5
  24255916.3824   -6703350.70447  -5199868.27746  24255918.7454   24255919.2644
       614.6964        478.9884
  21700017.4604  -20119814.13248 -15665029.39448  21700016.9574   21700016.5754
      -576.8984       -449.5234
  21525889.0924  -18318615.69648 -14215448.46447  21525889.5204   21525890.0444
     -1497.8924      -1167.1874
  23375159.9314   -7912869.96547  -6110898.88146  23375159.6664   23375159.8144
     -2144.3054      -1670.8934
  21542505.0484  -21913790.42848 -17017223.44047  21542504.5414   21542503.2404
       234.3814        182.6324
  23137517.2944  -12583073.84747  -9784971.36946  23137517.5964   23137517.3364
     -3538.8554      -2757.5434
  21994416.5404  -16922432.59948 -13163600.52947  21994416.3604   21994418.2724
      3128.2984       2437.6364
  23625748.7514   -9020720.30647  -6985777.33746  23625750.0714   23625750.5934
      2663.1194       2075.1664
 06  6 24  8 45 30.0000000  0  8G13G17G 4G24G 2G28G10G 5
  24252448.7084   -6721594.80647  -5214084.41946  24252448.6634   24252447.0864
       601.5384        468.7354
  21703338.6784  -20102357.38648 -15651426.73548  21703338.4384   21703339.1914
      -587.2624       -457.6024
  21534448.0924  -18273640.59848 -14180402.93547  21534447.8554   21534448.7074
     -1500.6234      -1169.3204
  23387395.2804   -7848578.35347  -6060801.49546  23387395.3144   23387393.8114
     -2142.2194      -1669.2724
  21541184.8044  -21920726.00848 -17022627.77847  21541184.9614   21541183.3834
       227.8194        177.5194
  23157743.1894  -12476803.80147  -9702163.54946  23157740.6044   23157739.3944
     -3546.1804      -2763.2674
  21976592.2764  -17016104.44648 -13236591.57147  21976592.3244   21976593.0124
      3116.2614       2428.2414
  23610582.4334   -9100427.93647  -7047887.14646  23610581.0684   23610583.5354
      2650.3584       2065.2104
 06  6 24  8 46  0.0000000  0  8G13G17G 4G24G 2G28G10G 5
  24249041.5654   -6739486.63447  -5228026.14346  24249040.8304   24249040.2084
       589.2854        459.1914
  21706712.7234  -20084627.88748 -15637611.54048  21706712.4614   21706712.6584
      -596.4934       -464.8104
  21543014.9524  -18228619.20648 -14145321.33247  21543015.1844   21543015.5864
     -1502.5604      -1170.8274
  23399608.1644   -7784388.96147  -6010783.77846  23399607.8344   23399612.4534
     -2139.0374      -1666.8074
  21539895.0414  -21927504.48748 -17027909.70447  21539894.8214   21539893.4114
       222.3424        173.2494
  23177996.2574  -12370360.41647  -9619220.64046  23177995.2564   23177996.6304
     -3552.0104      -2767.7854
  21958830.8424  -17109443.60448 -13309323.38647  21958829.6774   21958832.0254
      3104.6954       2419.2504
  23595478.9084   -9179792.63547  -7109729.79546  23595478.9084   23595479.7144
      2638.6744       2056.1084
 06  6 24  8 46 30.0000000  0  8G13G17G 4G24G 2G28G10G 5
  24245705.4124   -6757022.15447  -5241690.16246  24245705.5494   24245705.7584
       577.5644        450.0454
  21710138.9684  -20066622.48648 -15623581.36248  21710139.3704   21710139.0114
      -605.6724       -471.9554
  21551591.3704  -18183551.01248 -14110203.25847  21551591.5634   21551592.4614
     -1503.8934      -1171.8664
  23411803.8924   -7720300.45247  -5960844.71246  23411804.5564   23411806.3774
     -2135.4314      -1663.9744
  21538635.3534  -21934124.82648 -17033068.40447  21538635.2864   21538633.8604
       217.1584        169.2084
  23198285.4704  -12263744.28647  -9536143.16846  23198283.3714   23198285.2944
     -3557.6724      -2772.2104
  21941132.6684  -17202445.19648 -13381792.14347  21941132.0974   21941133.8734
      3093.5964       2410.5924
  23580441.7684   -9258810.14447  -7171301.86346  23580442.8304   23580443.8384
      2626.9094       2046.9404
 06  6 24  8 47  0.0000000  0  8G13G17G 4G24G 2G28G10G 5
  24242437.6904   -6774201.74547  -5255076.87246  24242435.3354   24242436.3734
       566.4004        441.3504
  21713617.7254  -20048342.41548 -15609337.15248  21713617.7504   21713617.4544
      -614.2414       -478.6324
  21560174.9754  -18138440.15148 -14075051.93147  21560175.9704   21560176.3724
     -1504.8154      -1172.5754
  23423981.5234   -7656316.47547  -5910987.06046  23423980.3724   23423980.8774
     -2131.2954      -1660.7664
  21537404.9454  -21940591.25548 -17038107.16947  21537404.7124   21537403.1584
       212.5984        165.6534
  23218604.4244  -12156961.08447  -9452935.45146  23218605.3114   23218603.4184
     -3562.5954      -2776.0524
  21923499.6974  -17295109.13748 -13453997.81247  21923498.6164   21923498.9894
      3082.7874       2402.1574
  23565472.7324   -9337481.02147  -7232603.84146  23565473.1134   23565473.4264
      2615.8944       2038.3534
 06  6 24  8 47 30.0000000  0  8G13G17G 4G24G 2G28G10G 5
  24239236.9514   -6791019.94347  -5268181.93146  24239236.8574   24239234.8094
       555.1714        432.5984
  21717149.6284  -20029783.37848 -15594875.56048  21717148.9894   21717149.2294
      -622.9244       -485.3874
  21568768.5424  -18093285.09548 -14039866.18147  21568768.4524   21568768.5884
     -1505.6994      -1173.2714
  23436136.4114   -7592434.73047  -5861209.06446  23436136.3214   23436137.4874
     -2127.3034      -1657.6674
  21536204.2964  -21946901.82548 -17043024.48947  21536203.9394   21536202.1954
       207.9754        162.0484
  23238956.1634  -12050010.43847  -9369597.31246  23238957.2104   23238957.0414
     -3567.7484      -2780.0664
  21905930.7984  -17387429.68548 -13525935.90947  21905931.0054   21905932.3924
      3071.9524       2393.7314
  23550568.6764   -9415799.76147  -7293631.42846  23550568.1984   23550569.4874
      2605.1664       2030.0074
 06  6 24  8 48  0.0000000  0  8G13G17G 4G24G 2G28G10G 5
  24236105.2594   -6807472.46047  -5281002.06246  24236106.7704   24236105.1824
       543.0454        423.1464
  21720734.9164  -20010941.74448 -15580193.77348  21720734.7454   21720734.3654
      -632.2084       -492.6424
  21577369.5564  -18048084.77148 -14004645.15447  21577369.8034   21577370.4634
     -1506.7974      -1174.1274
  23448273.7684   -7528653.55047  -5811509.45846  23448274.0354   23448274.6774
     -2123.7534      -1654.8814
  21535033.3634  -21953055.44648 -17047819.51647  21535033.1304   21535030.6984
       203.0464        158.2164
  23259339.9344  -11942893.29447  -9286129.42146  23259339.5134   23259339.2594
     -3572.6954      -2783.9314
  21888429.8234  -17479401.80748 -13597602.49547  21888429.4014   21888431.8654
      3060.5314       2384.8154
  23535732.0214   -9493761.80147  -7354381.04846  23535732.2114   23535733.8734
      2592.8814       2020.4304
 06  6 24  8 48 30.0000000  0  8G13G17G 4G24G 2G28G10G 5
  24233042.8214   -6823565.91347  -5293542.43446  24233042.3894   24233042.0374
       530.9384        413.7104
  21724372.5814  -19991824.61948 -15565297.31848  21724372.9564   21724372.4804
      -641.3934       -499.7794
  21585977.7454  -18002849.32648 -13969396.75847  21585977.7984   21585978.0244
     -1507.9464      -1175.0294
  23460390.8474   -7464982.06847  -5761895.32746  23460390.2934   23460390.3664
     -2120.2254      -1652.1374
  21533889.6254  -21959061.78648 -17052499.77047  21533889.7934   21533888.2344
       198.1204        154.3764
  23279753.7104  -11835620.86947  -9202540.52146  23279753.9244   23279754.2884
     -3577.9854      -2788.0454
  21870993.5284  -17571031.70148 -13669002.40947  21870992.7124   21870993.6194
      3048.8574       2375.7444
  23520965.3164   -9571373.51047  -7414857.72646  23520964.2524   23520964.1144
      2581.5804       2011.6264
 06  6 24  8 49  0.0000000  0  8G13G17G 4G24G 2G28G10G 5
  24230048.0184   -6839292.03647  -5305796.53746  24230050.2794   24230050.5714
       519.1174        404.5114
  21728064.2324  -19972424.68848 -15550180.48548  21728064.4944   21728063.8464
      -650.2524       -506.6844
  21594592.9764  -17957574.01548 -13934117.29447  21594593.5174   21594593.6094
     -1508.6834      -1175.6024
  23472486.9584   -7401415.00447  -5712362.54546  23472486.7734   23472487.6584
     -2116.0254      -1648.8384
  21532776.4584  -21964915.91648 -17057061.42947  21532776.0444   21532774.0514
       193.7544        150.9874
  23300197.8714  -11728189.53247  -9118827.79546  23300196.9174   23300196.1774
     -3582.6104      -2791.6444
  21853623.9294  -17662310.46148 -13740128.71847  21853623.1004   21853624.8454
      3037.9414       2367.2244
  23506263.7084   -9648626.45747  -7475054.81546  23506262.9914   23506263.9204
      2570.2054       2002.7604
 06  6 24  8 49 30.0000000  0  8G13G17G 4G24G 2G28G10G 5
  24227126.4604   -6854652.68547  -5317765.88846  24227126.6174   24227125.5304
       505.5394        393.9234
  21731809.3034  -19952744.82348 -15534845.52048  21731809.0094   21731808.7974
      -660.8654       -514.9744
  21603215.5294  -17912264.14948 -13898810.90547  21603215.6184   21603216.0594
     -1511.1644      -1177.5434
  23484561.3604   -7337957.10747  -5662914.84246  23484563.3324   23484563.1004
     -2113.6754      -1647.0504
  21531690.0934  -21970623.39048 -17061508.80047  21531689.6334   21531688.2934
       187.5024        146.1004
  23320670.5094  -11620606.39847  -9034996.82046  23320670.7324   23320668.6604
     -3589.0624      -2796.6864
  21836320.1654  -17753239.57448 -13810982.56347  21836319.8244   21836321.3364
      3024.8324       2357.0094
  23491630.3634   -9725522.49647  -7534973.80146  23491629.8584   23491630.9814
      2556.8324       1992.3384
 06  6 24  8 50  0.0000000  0  8G13G17G 4G24G 2G28G10G 5
  24224274.8944   -6869638.52447  -5329443.16646  24224275.1804   24224275.9394
       492.9194        384.0914
  21735609.1404  -19932776.33248 -15519285.66247  21735609.0644   21735608.6724
      -671.0334       -522.8934
  21611844.9744  -17866913.87648 -13863473.02647  21611844.8984   21611845.8934
     -1512.9634      -1178.9424
  23496619.4024   -7274601.73247  -5613547.01446  23496617.6894   23496619.6624
     -2110.5694      -1644.5794
  21530632.5934  -21976178.09648 -17065837.14747  21530632.6584   21530630.7664
       182.0894        141.8784
  23341172.3904  -11512866.88147  -8951043.90146  23341171.0964   23341171.7964
     -3594.5264      -2800.9364
  21819085.3994  -17843809.08348 -13881556.20247  21819084.3934   21819086.2184
      3012.4384       2347.3324
  23477067.2394   -9802052.15947  -7594607.31846  23477067.9364   23477067.9404
      2544.2624       1982.5394
 06  6 24  8 50 30.0000000  0  8G13G17G 4G24G 2G28G10G 5
  24221494.8294   -6884255.61247  -5340833.11446  24221494.5904   24221493.2394
       480.6004        374.4844
  21739462.5584  -19912525.73348 -15503505.97348  21739462.5674   21739462.6364
      -680.3624       -530.1474
  21620481.3144  -17821532.49248 -13828110.91747  21620480.9814   21620481.6574
     -1513.7554      -1179.5654
  23508653.7074   -7211357.28247  -5564265.63046  23508654.4204   23508654.8214
     -2106.8844      -1641.7274
  21529603.0744  -21981588.89748 -17070053.34547  21529602.8634   21529602.0044
       177.5704        138.3644
  23361700.3724  -11404981.94647  -8866977.77446  23361702.3894   23361700.6594
     -3599.1434      -2804.5294
  21801918.3744  -17934024.01348 -13951853.54947  21801917.4944   21801919.6394
      3000.7354       2338.2204
  23462572.3534   -9878220.95547  -7653959.61146  23462571.5444   23462574.4154
      2532.3484       1973.2534
 06  6 24  8 51  0.0000000  0  8G13G17G 4G24G 2G28G10G 5
  24218783.6264   -6898498.94847  -5351931.82846  24218784.2114   24218781.6094
       468.9464        365.4124
  21743370.6074  -19891989.10948 -15487503.41347  21743370.5944   21743370.4094
      -688.7364       -536.6734
  21629122.3874  -17776118.80248 -13792723.61947  21629122.9574   21629123.6554
     -1513.7164      -1179.5214
  23520667.8324   -7148221.58547  -5515068.96646  23520666.9754   23520668.5594
     -2102.1754      -1638.0604
  21528601.2954  -21986854.49348 -17074156.40247  21528601.0104   21528599.5024
       173.6424        135.3024
  23382258.9954  -11296951.51547  -8782798.19046  23382259.7014   23382258.4734
     -3602.8064      -2807.3864
  21784818.7314  -18023879.24248 -14021870.58747  21784818.5664   21784820.8514
      2989.6534       2329.6094
  23448148.7074   -9954024.06947  -7713026.98146  23448147.2994   23448148.8464
      2521.1134       1964.5084
 06  6 24  8 51 30.0000000  0  8G13G17G 4G24G 2G28G10G 5
  24216141.9904   -6912366.09847  -5362737.40446  24216144.7184   24216145.5144
       454.8654        354.4454
  21747333.4324  -19871164.82548 -15471276.69247  21747333.4284   21747333.3324
      -699.6114       -545.1674
  21637770.9334  -17730673.45548 -13757311.66847  21637771.0954   21637771.3694
     -1516.0964      -1181.3784
  23532662.1874   -7085195.01047  -5465957.35346  23532661.3644   23532662.4114
     -2099.6794      -1636.1174
  21527626.4964  -21991975.47148 -17078146.77147  21527626.3764   21527625.0344
       167.5354        130.5364
  23402842.7664  -11188777.81547  -8698506.99846  23402842.7724   23402844.5974
     -3608.9604      -2812.1754
  21767789.6544  -18113371.52648 -14091604.83347  21767789.1304   21767789.8484
      2976.2634       2319.1524
  23433792.9074  -10029458.80547  -7771807.28446  23433793.5044   23433795.5724
      2507.5634       1953.9434
 06  6 24  8 52  0.0000000  0  8G13G17G 4G24G 2G28G10G 5
  24213577.6074   -6925854.31447  -5373247.69146  24213578.3424   24213577.2474
       443.7124        345.7514
  21751351.5094  -19850050.59648 -15454824.04747  21751351.5474   21751350.9644
      -708.1124       -551.7634
  21646424.5944  -17685197.08548 -13721875.53947  21646424.6114   21646425.6964
     -1515.8174      -1181.1494
  23544634.3844   -7022277.39647  -5416930.62946  23544634.2054   23544636.8444
     -2095.1604      -1632.5644
  21526679.8944  -21996952.05448 -17082024.61847  21526679.6814   21526677.8714
       164.1464        127.9094
  23423456.8114  -11080463.08747  -8614105.95246  23423457.2764   23423455.3864
     -3612.3144      -2814.7844
  21750829.1944  -18202497.68548 -14161053.78147  21750829.2744   21750829.8214
      2965.1884       2310.5094
  23419510.3354  -10104522.22947  -7830298.25846  23419508.9394   23419510.0584
      2496.6134       1945.4034
 06  6 24  8 52 30.0000000  0  8G13G17G 4G24G 2G28G10G 5
  24211083.3384   -6938963.12447  -5383462.33946  24211081.0644   24211081.8004
       430.1484        335.1754
  21755424.0614  -19828646.56148 -15438145.58647  21755424.1354   21755423.9164
      -718.5204       -559.8774
  21655084.1664  -17639692.20948 -13686417.19047  21655084.2344   21655085.3064
     -1517.6674      -1182.6014
  23556585.1304   -6959470.42047  -5367990.16046  23556584.2314   23556586.0714
     -2091.9684      -1630.1144
  21525760.1184  -22001787.20048 -17085792.25747  21525759.8654   21525757.7724
       158.5874        123.5614
  23444093.8814  -10972011.31447  -8529598.06146  23444093.5054   23444092.1394
     -3617.6024      -2818.9184
  21733939.6504  -18291256.17848 -14230216.23447  21733938.9974   21733940.4684
      2952.2014       2300.4024
  23405296.5494  -10179213.27947  -7888499.09446  23405295.5574   23405296.1024
      2483.2124       1934.9664
 06  6 24  8 53  0.0000000  0  8G13G17G 4G24G 2G28G10G 5
  24208660.1554   -6951692.83446  -5393381.59846  24208660.5454   24208659.8204
       418.6134        326.1964
  21759552.2784  -19806954.42548 -15421242.62147  21759552.2294   21759552.1314
      -727.4834       -566.8774
  21663748.0954  -17594163.08048 -13650939.94947  21663748.1424   21663748.6324
     -1517.6224      -1182.5654
  23568515.4574   -6896777.42947  -5319138.48746  23568515.5624   23568515.0064
     -2087.3664      -1626.5244
  21524865.7094  -22006484.76948 -17089452.68947  21524865.8634   21524864.0324
       154.7544        120.5734
  23464756.3254  -10863428.11647  -8444987.78446  23464755.8464   23464756.3714
     -3621.0524      -2821.5974
  21717119.2024  -18379647.32748 -14299092.44547  21717118.0094   21717119.6734
      2940.6504       2291.4124
  23391153.0314  -10253532.74347  -7946410.36646  23391153.4144   23391154.6224
      2471.3544       1925.7244
 06  6 24  8 53 30.0000000  0  8G13G17G 4G24G 2G28G10G 5
  24206311.7354   -6964035.79047  -5402999.47246  24206310.5854   24206310.3234
       404.9224        315.5234
  21763736.3484  -19784966.87248 -15404109.46147  21763736.7974   21763736.1304
      -737.9514       -575.0304
  21672417.2394  -17548604.99148 -13615440.14047  21672417.8464   21672417.8994
     -1519.0704      -1183.7104
  23580425.8734   -6834193.21747  -5270371.52246  23580425.3854   23580425.4854
     -2084.3374      -1624.1554
  21523999.5444  -22011040.10648 -17093002.29847  21523998.7934   21523997.4444
       149.3624        116.3754
  23485445.1254  -10754710.35547  -8360272.63846  23485444.1404   23485443.9254
     -3626.0904      -2825.5264
  21700369.7884  -18467662.44748 -14367675.65747  21700369.1834   21700371.1574
      2927.4734       2281.1504
  23377083.3874  -10327472.43447  -8004025.68846  23377082.7094   23377083.7624
      2458.1774       1915.4644
 06  6 24  8 54  0.0000000  0  8G13G17G 4G24G 2G28G10G 5
  24204033.3974   -6975995.66646  -5412318.85746  24204035.8604   24204033.9844
       393.3964        306.5424
  21767975.6824  -19762688.78248 -15386749.91247  21767975.7964   21767975.5574
      -746.5944       -581.7734
  21681091.1844  -17503025.12148 -13579923.35547  21681091.1364   21681091.4314
     -1518.8174      -1183.5004
  23592312.6704   -6771724.30647  -5221694.43246  23592311.4894   23592314.7214
     -2079.1684      -1620.1444
  21523157.3024  -22015459.99948 -17096446.36347  21523157.2264   21523155.6124
       146.0774        113.8294
  23506156.4054  -10645866.82147  -8275459.52946  23506156.5474   23506155.4944
     -3629.0774      -2827.8524
  21683692.7404  -18555304.99948 -14435968.53947  21683691.3494   21683693.3044
      2916.0434       2272.2314
  23363085.6424  -10401036.12947  -8061348.06546  23363084.5364   23363084.5984
      2447.0164       1906.7704
 06  6 24  8 54 30.0000000  0  8G13G17G 4G24G 2G28G10G 5
  24201832.5214   -6987565.68246  -5421334.44146  24201834.1414   24201834.9004
       378.7754        295.1464
  21772271.3874  -19740113.57048 -15369158.84347  21772271.6994   21772271.1884
      -757.7034       -590.4154
  21689769.4344  -17457419.72448 -13544386.68447  21689769.4164   21689769.6914
     -1520.9594      -1185.1444
  23604178.7704   -6709366.08847  -5173103.64946  23604179.1854   23604181.3484
     -2076.9214      -1618.3734
  21522343.1924  -22019740.24348 -17099781.61747  21522343.5994   21522341.2184
       140.0094        109.1034
  23526893.4974  -10536894.92247  -8190546.35246  23526892.6604   23526892.7764
     -3635.0544      -2832.5094
  21667086.8454  -18642567.30848 -14503965.13547  21667086.7354   21667088.0434
      2902.0054       2261.3044
  23349158.2294  -10474216.46947  -8118371.71346  23349157.7354   23349159.8744
      2432.7164       1895.6324
 06  6 24  8 55  0.0000000  0  8G13G17G 4G24G 2G28G10G 5
  24199706.6544   -6998747.36346  -5430047.43746  24199705.9904   24199705.5844
       365.3604        284.6934
  21776623.4624  -19717243.57348 -15351338.06147  21776623.5774   21776623.0404
      -768.2254       -598.6074
  21698451.8784  -17411793.37148 -13508833.67447  21698451.7544   21698452.4094
     -1522.0934      -1186.0564
  23616023.5524   -6647122.46147  -5124602.13746  23616022.6274   23616024.9464
     -2073.6064      -1615.8004
  21521554.3194  -22023885.97048 -17103012.04147  21521554.1644   21521552.4484
       134.9764        105.1764
  23547653.6914  -10427801.12047  -8105538.20546  23547652.7544   23547653.3664
     -3639.3894      -2835.8894
  21650553.5924  -18729450.10948 -14571666.01547  21650552.2614   21650554.0474
      2888.8414       2251.0514
  23335306.3194  -10547014.88947  -8175097.73946  23335305.3384   23335307.0194
      2419.3584       1885.1944
 06  6 24  8 55 30.0000000  0  8G13G17G 4G24G 2G28G10G 5
  24197651.5774   -7009538.78546  -5438456.34546  24197654.5084   24197652.9104
       352.5784        274.7434
  21781031.7014  -19694077.21348 -15333286.34947  21781032.0064   21781032.0704
      -777.7624       -606.0394
  21707137.6914  -17366147.23948 -13473265.26747  21707138.4494   21707138.6494
     -1522.4434      -1186.3074
  23627846.4354   -6584993.55947  -5076189.98246  23627846.2034   23627847.4234
     -2069.5734      -1612.6714
  21520790.9834  -22027898.10348 -17106138.37847  21520790.7794   21520788.8314
       130.9404        102.0464
  23568435.2844  -10318587.88047  -8020436.96246  23568435.2144   23568436.4684
     -3643.0024      -2838.7004
  21634093.1274  -18815950.67048 -14639069.04147  21634091.8704   21634094.7634
      2876.4924       2241.4364
  23321526.4624  -10619428.94447  -8231524.26646  23321525.8804   23321526.4104
      2406.7414       1875.3894
 06  6 24  8 56  0.0000000  0  8G13G17G 4G24G 2G28G10G 5
  24195674.7494   -7019935.94146  -5446558.03746  24195674.4584   24195674.3404
       339.5494        264.5934
  21785496.5854  -19670611.57648 -15315001.43947  21785497.9134   21785497.6324
      -787.6554       -613.7454
  21715828.2834  -17320480.42348 -13437680.73147  21715828.5044   21715828.7834
     -1522.9634      -1186.7034
  23639647.7884   -6522978.21747  -5027866.30946  23639646.4914   23639647.2074
     -2065.7274      -1609.6614
  21520052.6154  -22031775.82748 -17109159.97747  21520053.0084   21520050.4684
       126.6284         98.6904
  23589242.3654  -10209256.07347  -7935243.39846  23589240.9894   23589239.5834
     -3646.5334      -2841.4614
  21617706.3464  -18902064.62748 -14706170.81347  21617705.5254   21617706.2234
      2863.5634       2231.3634
  23307820.3394  -10691454.61047  -8287648.17346  23307819.4134   23307820.5934
      2393.8484       1865.3284
 06  6 24  8 56 30.0000000  0  8G13G17G 4G24G 2G28G10G 5
  24193771.4434   -7029938.83546  -5454352.49446  24193770.1154   24193768.4914
       326.9074        254.7274
  21790019.1134  -19646847.27648 -15296483.80947  21790019.7444   21790019.4994
      -797.0724       -621.0904
  21724521.6174  -17274796.30448 -13402082.71447  21724521.4454   21724522.2474
     -1522.9514      -1186.6914
  23651426.2624   -6461078.89547  -4979633.07946  23651426.5294   23651428.3364
     -2061.5434      -1606.3924
  21519340.5214  -22035522.37448 -17112079.36247  21519339.7204   21519337.7054
       122.8204         95.6904
  23610068.7804  -10099810.64647  -7849961.21246  23610067.5464   23610068.3124
     -3649.8394      -2844.0254
  21601393.4494  -18987791.55848 -14772971.01547  21601392.0644   21601394.0244
      2851.1894       2221.7294
  23294187.0184  -10763091.79947  -8343469.36146  23294187.3394   23294189.2434
      2381.3894       1855.6454
 06  6 24  8 57  0.0000000  0  8G13G17G 4G24G 2G28G10G 5
  24191941.5584   -7039547.18046  -5461839.49846  24191942.2374   24191941.6594
       314.4274        245.0074
  21794598.2694  -19622785.22648 -15277734.15947  21794598.3744   21794597.7854
      -806.2344       -628.2414
  21733217.7504  -17229097.95048 -13366473.61047  21733218.2414   21733218.8324
     -1522.7954      -1186.5904
  23663183.2314   -6399297.94447  -4931492.09946  23663183.2644   23663184.9944
     -2056.5334      -1602.4864
  21518651.2104  -22039140.54048 -17114898.72047  21518651.7804   21518649.9234
       119.1814         92.8794
  23630915.5864   -9990255.90047  -7764593.91846  23630915.1844   23630915.3124
     -3652.8234      -2846.3464
  21585152.9024  -19073130.67048 -14839469.01147  21585152.4974   21585154.5574
      2838.8204       2212.0664
  23280630.7574  -10834340.29347  -8398987.66446  23280629.7474   23280630.5794
      2369.2044       1846.1294
 06  6 24  8 57 30.0000000  0  8G13G17G 4G24G 2G28G10G 5
  24190191.3284   -7048755.27046  -5469014.63546  24190189.9084   24190188.9724
       301.0694        234.6074
  21799234.5244  -19598419.75148 -15258748.07347  21799235.5344   21799234.7844
      -816.5414       -636.2564
  21741917.0494  -17183382.32248 -13330851.04147  21741916.9674   21741917.0074
     -1523.4374      -1187.0924
  23674917.9464   -6337631.50547  -4883440.31946  23674918.5274   23674918.3674
     -2053.1664      -1599.8534
  21517988.3734  -22042627.25648 -17117615.63847  21517987.9274   21517986.3214
       114.6894         89.3724
  23651785.0564   -9880590.78547  -7679140.58046  23651783.3304   23651783.9064
     -3656.8334      -2849.4854
  21568989.0814  -19158074.91348 -14905659.32547  21568988.4714   21568989.3344
      2825.6304       2201.7874
  23267146.2584  -10905193.65947  -8454198.08146  23267146.2114   23267147.9804
      2355.7684       1835.6674
 06  6 24  8 58  0.0000000  0  8G13G17G 4G24G 2G28G10G 5
  24188512.5894   -7057564.39646  -5475878.89246  24188512.5164   24188511.5354
       286.2114        223.0234
  21803928.8294  -19573752.80348 -15239527.07647  21803929.3264   21803928.9744
      -827.8264       -645.0554
  21750618.5274  -17137653.54148 -13295218.22747  21750619.2504   21750619.5014
     -1525.0844      -1188.3714
  23686628.9064   -6276083.20347  -4835480.59846  23686629.4684   23686629.8634
     -2050.3514      -1597.6774
  21517348.5594  -22045986.91448 -17120233.55147  21517348.4004   21517347.1154
       109.2954         85.1774
  23672672.5774   -9770820.99447  -7593605.67046  23672672.2984   23672673.4994
     -3661.2924      -2852.9624
  21552899.6814  -19242625.19548 -14971542.65347  21552898.9634   21552899.8584
      2811.0694       2190.4574
  23253737.9894  -10975652.99147  -8509101.45846  23253738.9304   23253739.7494
      2341.4654       1824.5294
 06  6 24  8 58 30.0000000  0  8G13G17G 4G24G 2G28G10G 5
  24186913.4134   -7065967.42046  -5482426.69246  24186915.9854   24186914.7934
       273.6164        213.2074
  21808681.0954  -19548778.31248 -15220066.43347  21808681.5534   21808681.0184
      -837.1024       -652.2954
  21759324.5154  -17091907.57648 -13259572.01947  21759324.3534   21759324.3674
     -1524.6584      -1188.0574
  23698320.5884   -6214648.13947  -4787609.11046  23698322.2444   23698320.0604
     -2045.5674      -1593.9444
  21516734.4544  -22049215.43748 -17122749.28647  21516734.4094   21516732.5544
       105.8554         82.4924
  23693581.5744   -9660944.00647  -7507987.26346  23693582.2454   23693581.3444
     -3663.8984      -2854.9824
  21536886.9024  -19326773.88048 -15037113.04947  21536886.2164   21536887.5304
      2798.6804       2180.7904
  23240407.0264  -11045710.99747  -8563692.10446  23240406.1634   23240408.0894
      2328.9654       1814.7824
 06  6 24  8 59  0.0000000  0  8G13G17G 4G24G 2G28G10G 5
  24185391.9984   -7073972.39447  -5488664.35046  24185391.8644   24185390.1554
       261.2174        203.5434
  21813490.9834  -19523504.76348 -15200372.75847  21813490.8664   21813490.6174
      -846.5464       -659.6494
  21768030.4724  -17046155.77648 -13223921.25947  21768030.6704   21768030.7594
     -1524.2744      -1187.7644
  23709987.8344   -6153336.80047  -4739834.02346  23709989.1124   23709988.8064
     -2040.9114      -1590.3264
  21516142.7694  -22052323.63348 -17125171.26047  21516142.7084   21516141.0984
       102.4864         79.8534
  23714506.1844   -9550972.22246  -7422294.98146  23714505.8424   23714508.0084
     -3666.3774      -2856.9204
  21520948.7604  -19410528.38548 -15102376.29147  21520948.3974   21520949.7534
      2786.1004       2170.9844
  23227150.1124  -11115375.43647  -8617976.08946  23227149.3384   23227150.9344
      2316.2024       1804.8374
